Multibeam Report for MGL0910


Ship Name: Marcus G. Langseth
Chief Scientist: Toomey, Douglas
University of Oregon
Source Organization: Rolling Deck to Repository
Start Date: 2009-08-22
End Date: 2009-09-19


View ISO Metadata

Visit the full NCEI Bathymetry Viewer


Multibeam Bathymetry

Cruise Details

Project: Endeavour Seismic Tomography Experiment (ETOMO)
Instrument: Kongsberg EM122

Data Quality

Number of Files: 1206
Number of Records: 134654
BATHYMETRY DATA Quantity Percentage
Number of Beams 58170528 100%
Number of Good Beams 52695857 90.59%
Number of Zero Beams 0 0%
Number of Flagged Beams 5474671 9.41%
AMPLITUDE DATA Quantity Percentage
Number of Beams 58170528 100%
Number of Good Beams 52695857 90.59%
Number of Zero Beams 0 0%
Number of Flagged Beams 5474671 9.41%
SIDESCAN DATA Quantity Percentage
Number of Pixels 137885696 100%
Number of Good Pixels 89800124 65.13%
Number of Zero Pixels 0 0%
Number of Flagged Pixels 48085572 34.87%

Navigation Totals

Total Time: 554.4062 hours
Total Track Length: 5427.2671 km
Average Speed: 9.789 km/hr (5.2856 knots)

Cruise Bounds

Northern Extent: 48.64629
Southern Extent: 46.19023
Western Extent: -129.54095
Eastern Extent: -124.130455

Limits

Minimum Sonar Depth 0.9674 Maximum Sonar Depth 15.6015
Minimum Altitude 15.5201 Maximum Altitude 9645.3262
Minimum Depth 0.1822 Maximum Depth 10259.6699
Minimum Amplitude 0 Maximum Amplitude 16.1
Minimum Sidescan 0 Maximum Sidescan 24.9

File Information

Full Resolution Bathymetry as collected (raw): 1205

Files File Size Description
0000_20090823_012114_Langseth.all.mb58.gz 4.86MB Kongsberg multibeam vendor format
0001_20090823_015057_Langseth.all.mb58.gz 5.11MB Kongsberg multibeam vendor format
0002_20090823_022056_Langseth.all.mb58.gz 4.12MB Kongsberg multibeam vendor format
0003_20090823_025100_Langseth.all.mb58.gz 4.20MB Kongsberg multibeam vendor format
0004_20090823_032102_Langseth.all.mb58.gz 4.19MB Kongsberg multibeam vendor format
0005_20090823_035057_Langseth.all.mb58.gz 4.23MB Kongsberg multibeam vendor format
0006_20090823_042054_Langseth.all.mb58.gz 4.33MB Kongsberg multibeam vendor format
0007_20090823_045103_Langseth.all.mb58.gz 4.47MB Kongsberg multibeam vendor format
0008_20090823_052057_Langseth.all.mb58.gz 4.36MB Kongsberg multibeam vendor format
0009_20090823_055100_Langseth.all.mb58.gz 4.32MB Kongsberg multibeam vendor format
0010_20090823_062056_Langseth.all.mb58.gz 4.26MB Kongsberg multibeam vendor format
0011_20090823_065056_Langseth.all.mb58.gz 4.25MB Kongsberg multibeam vendor format
0012_20090823_072058_Langseth.all.mb58.gz 4.25MB Kongsberg multibeam vendor format
0013_20090823_075054_Langseth.all.mb58.gz 4.21MB Kongsberg multibeam vendor format
0014_20090823_082104_Langseth.all.mb58.gz 4.15MB Kongsberg multibeam vendor format
0015_20090823_085058_Langseth.all.mb58.gz 4.29MB Kongsberg multibeam vendor format
0016_20090823_092103_Langseth.all.mb58.gz 4.21MB Kongsberg multibeam vendor format
0017_20090823_095106_Langseth.all.mb58.gz 4.25MB Kongsberg multibeam vendor format
0018_20090823_102103_Langseth.all.mb58.gz 4.16MB Kongsberg multibeam vendor format
0019_20090823_105053_Langseth.all.mb58.gz 4.24MB Kongsberg multibeam vendor format
0020_20090823_112054_Langseth.all.mb58.gz 4.21MB Kongsberg multibeam vendor format
0021_20090823_115058_Langseth.all.mb58.gz 4.27MB Kongsberg multibeam vendor format
0022_20090823_122057_Langseth.all.mb58.gz 4.18MB Kongsberg multibeam vendor format
0023_20090823_125054_Langseth.all.mb58.gz 4.31MB Kongsberg multibeam vendor format
0024_20090823_132057_Langseth.all.mb58.gz 4.30MB Kongsberg multibeam vendor format
0025_20090823_135053_Langseth.all.mb58.gz 4.16MB Kongsberg multibeam vendor format
0026_20090823_142103_Langseth.all.mb58.gz 4.17MB Kongsberg multibeam vendor format
0027_20090823_145052_Langseth.all.mb58.gz 4.24MB Kongsberg multibeam vendor format
0028_20090823_152100_Langseth.all.mb58.gz 4.23MB Kongsberg multibeam vendor format
0029_20090823_155055_Langseth.all.mb58.gz 4.01MB Kongsberg multibeam vendor format
0030_20090823_162056_Langseth.all.mb58.gz 4.23MB Kongsberg multibeam vendor format
0031_20090823_165103_Langseth.all.mb58.gz 4.18MB Kongsberg multibeam vendor format
0032_20090823_172057_Langseth.all.mb58.gz 4.30MB Kongsberg multibeam vendor format
0033_20090823_175100_Langseth.all.mb58.gz 4.09MB Kongsberg multibeam vendor format
0034_20090823_182059_Langseth.all.mb58.gz 4.04MB Kongsberg multibeam vendor format
0035_20090823_185057_Langseth.all.mb58.gz 0.56MB Kongsberg multibeam vendor format
0036_20090824_061831_Langseth.all.mb58.gz 4.14MB Kongsberg multibeam vendor format
0037_20090824_064815_Langseth.all.mb58.gz 3.06MB Kongsberg multibeam vendor format
0038_20090824_071917_Langseth.all.mb58.gz 4.05MB Kongsberg multibeam vendor format
0039_20090824_074902_Langseth.all.mb58.gz 1.70MB Kongsberg multibeam vendor format
0040_20090824_081258_Langseth.all.mb58.gz 4.12MB Kongsberg multibeam vendor format
0041_20090824_084258_Langseth.all.mb58.gz 1.03MB Kongsberg multibeam vendor format
0042_20090824_085713_Langseth.all.mb58.gz 4.19MB Kongsberg multibeam vendor format
0043_20090824_092705_Langseth.all.mb58.gz 1.40MB Kongsberg multibeam vendor format
0044_20090824_094436_Langseth.all.mb58.gz 4.25MB Kongsberg multibeam vendor format
0045_20090824_101438_Langseth.all.mb58.gz 1.46MB Kongsberg multibeam vendor format
0046_20090824_103747_Langseth.all.mb58.gz 4.11MB Kongsberg multibeam vendor format
0047_20090824_110800_Langseth.all.mb58.gz 2.05MB Kongsberg multibeam vendor format
0048_20090824_113029_Langseth.all.mb58.gz 4.13MB Kongsberg multibeam vendor format
0049_20090824_120029_Langseth.all.mb58.gz 1.99MB Kongsberg multibeam vendor format
0050_20090824_122338_Langseth.all.mb58.gz 4.27MB Kongsberg multibeam vendor format
0051_20090824_125317_Langseth.all.mb58.gz 2.07MB Kongsberg multibeam vendor format
0052_20090824_131605_Langseth.all.mb58.gz 4.31MB Kongsberg multibeam vendor format
0053_20090824_134612_Langseth.all.mb58.gz 2.16MB Kongsberg multibeam vendor format
0054_20090824_141321_Langseth.all.mb58.gz 3.86MB Kongsberg multibeam vendor format
0055_20090824_144333_Langseth.all.mb58.gz 3.43MB Kongsberg multibeam vendor format
0056_20090824_151323_Langseth.all.mb58.gz 1.22MB Kongsberg multibeam vendor format
0057_20090824_153426_Langseth.all.mb58.gz 4.16MB Kongsberg multibeam vendor format
0058_20090824_160429_Langseth.all.mb58.gz 1.54MB Kongsberg multibeam vendor format
0059_20090824_162236_Langseth.all.mb58.gz 4.05MB Kongsberg multibeam vendor format
0060_20090824_165243_Langseth.all.mb58.gz 1.26MB Kongsberg multibeam vendor format
0061_20090824_170623_Langseth.all.mb58.gz 4.02MB Kongsberg multibeam vendor format
0062_20090824_173631_Langseth.all.mb58.gz 0.78MB Kongsberg multibeam vendor format
0063_20090824_174804_Langseth.all.mb58.gz 3.78MB Kongsberg multibeam vendor format
0064_20090824_181801_Langseth.all.mb58.gz 3.7KB Kongsberg multibeam vendor format
0065_20090824_184022_Langseth.all.mb58.gz 3.59MB Kongsberg multibeam vendor format
0066_20090824_191034_Langseth.all.mb58.gz 0.76MB Kongsberg multibeam vendor format
0067_20090824_192105_Langseth.all.mb58.gz 3.73MB Kongsberg multibeam vendor format
0068_20090824_195051_Langseth.all.mb58.gz 1.40MB Kongsberg multibeam vendor format
0069_20090824_200616_Langseth.all.mb58.gz 3.85MB Kongsberg multibeam vendor format
0070_20090824_203608_Langseth.all.mb58.gz 2.55MB Kongsberg multibeam vendor format
0071_20090824_210019_Langseth.all.mb58.gz 4.13MB Kongsberg multibeam vendor format
0072_20090824_213011_Langseth.all.mb58.gz 3.82MB Kongsberg multibeam vendor format
0073_20090824_220007_Langseth.all.mb58.gz 1.07MB Kongsberg multibeam vendor format
0075_20090824_221347_Langseth.all.mb58.gz 4.39MB Kongsberg multibeam vendor format
0076_20090824_224327_Langseth.all.mb58.gz 228.7KB Kongsberg multibeam vendor format
0077_20090824_224921_Langseth.all.mb58.gz 3.92MB Kongsberg multibeam vendor format
0078_20090824_231908_Langseth.all.mb58.gz 1.05MB Kongsberg multibeam vendor format
0079_20090824_233048_Langseth.all.mb58.gz 3.94MB Kongsberg multibeam vendor format
0080_20090825_000041_Langseth.all.mb58.gz 1.84MB Kongsberg multibeam vendor format
0081_20090825_003523_Langseth.all.mb58.gz 3.84MB Kongsberg multibeam vendor format
0082_20090825_010511_Langseth.all.mb58.gz 3.79MB Kongsberg multibeam vendor format
0083_20090825_013502_Langseth.all.mb58.gz 1.84MB Kongsberg multibeam vendor format
0084_20090825_020004_Langseth.all.mb58.gz 3.98MB Kongsberg multibeam vendor format
0085_20090825_022951_Langseth.all.mb58.gz 0.79MB Kongsberg multibeam vendor format
0086_20090825_024228_Langseth.all.mb58.gz 4.06MB Kongsberg multibeam vendor format
0087_20090825_031216_Langseth.all.mb58.gz 2.02MB Kongsberg multibeam vendor format
0088_20090825_033544_Langseth.all.mb58.gz 3.93MB Kongsberg multibeam vendor format
0089_20090825_040541_Langseth.all.mb58.gz 2.11MB Kongsberg multibeam vendor format
0090_20090825_043048_Langseth.all.mb58.gz 3.50MB Kongsberg multibeam vendor format
0091_20090825_050029_Langseth.all.mb58.gz 2.95MB Kongsberg multibeam vendor format
0092_20090825_052708_Langseth.all.mb58.gz 4.40MB Kongsberg multibeam vendor format
0093_20090825_055653_Langseth.all.mb58.gz 3.94MB Kongsberg multibeam vendor format
0094_20090825_062658_Langseth.all.mb58.gz 70.5KB Kongsberg multibeam vendor format
0095_20090825_063558_Langseth.all.mb58.gz 3.71MB Kongsberg multibeam vendor format
0096_20090825_070546_Langseth.all.mb58.gz 2.40MB Kongsberg multibeam vendor format
0097_20090825_073619_Langseth.all.mb58.gz 4.09MB Kongsberg multibeam vendor format
0098_20090825_080620_Langseth.all.mb58.gz 3.42MB Kongsberg multibeam vendor format
0099_20090825_083635_Langseth.all.mb58.gz 2.13MB Kongsberg multibeam vendor format
0100_20090825_103315_Langseth.all.mb58.gz 2.83MB Kongsberg multibeam vendor format
0101_20090825_110139_Langseth.all.mb58.gz 3.71MB Kongsberg multibeam vendor format
0102_20090825_113149_Langseth.all.mb58.gz 3.57MB Kongsberg multibeam vendor format
0103_20090825_120152_Langseth.all.mb58.gz 4.04MB Kongsberg multibeam vendor format
0104_20090825_123143_Langseth.all.mb58.gz 276.4KB Kongsberg multibeam vendor format
0105_20090825_124200_Langseth.all.mb58.gz 4.14MB Kongsberg multibeam vendor format
0106_20090825_131206_Langseth.all.mb58.gz 3.59MB Kongsberg multibeam vendor format
0107_20090825_134217_Langseth.all.mb58.gz 1.09MB Kongsberg multibeam vendor format
0108_20090825_140436_Langseth.all.mb58.gz 3.76MB Kongsberg multibeam vendor format
0109_20090825_143441_Langseth.all.mb58.gz 2.48MB Kongsberg multibeam vendor format
0110_20090825_145720_Langseth.all.mb58.gz 4.17MB Kongsberg multibeam vendor format
0111_20090825_152723_Langseth.all.mb58.gz 3.91MB Kongsberg multibeam vendor format
0112_20090825_155731_Langseth.all.mb58.gz 0.58MB Kongsberg multibeam vendor format
0113_20090825_160513_Langseth.all.mb58.gz 3.88MB Kongsberg multibeam vendor format
0114_20090825_163527_Langseth.all.mb58.gz 4.14MB Kongsberg multibeam vendor format
0115_20090825_170527_Langseth.all.mb58.gz 2.48MB Kongsberg multibeam vendor format
0116_20090825_172510_Langseth.all.mb58.gz 4.01MB Kongsberg multibeam vendor format
0117_20090825_175523_Langseth.all.mb58.gz 3.26MB Kongsberg multibeam vendor format
0118_20090825_182528_Langseth.all.mb58.gz 3.65MB Kongsberg multibeam vendor format
0119_20090825_185547_Langseth.all.mb58.gz 1.11MB Kongsberg multibeam vendor format
0120_20090825_190902_Langseth.all.mb58.gz 3.79MB Kongsberg multibeam vendor format
0121_20090825_193852_Langseth.all.mb58.gz 79.6KB Kongsberg multibeam vendor format
0122_20090825_194350_Langseth.all.mb58.gz 3.85MB Kongsberg multibeam vendor format
0123_20090825_201336_Langseth.all.mb58.gz 2.18MB Kongsberg multibeam vendor format
0124_20090825_203244_Langseth.all.mb58.gz 3.92MB Kongsberg multibeam vendor format
0125_20090825_210233_Langseth.all.mb58.gz 3.20MB Kongsberg multibeam vendor format
0126_20090825_212822_Langseth.all.mb58.gz 4.19MB Kongsberg multibeam vendor format
0127_20090825_215802_Langseth.all.mb58.gz 4.46MB Kongsberg multibeam vendor format
0128_20090825_222813_Langseth.all.mb58.gz 0.69MB Kongsberg multibeam vendor format
0129_20090825_223738_Langseth.all.mb58.gz 0.56MB Kongsberg multibeam vendor format
0130_20090825_224207_Langseth.all.mb58.gz 466.2KB Kongsberg multibeam vendor format
0131_20090825_224552_Langseth.all.mb58.gz 44.8KB Kongsberg multibeam vendor format
0132_20090825_224848_Langseth.all.mb58.gz 0.75MB Kongsberg multibeam vendor format
0133_20090825_225437_Langseth.all.mb58.gz 4.40MB Kongsberg multibeam vendor format
0134_20090825_232424_Langseth.all.mb58.gz 2.04MB Kongsberg multibeam vendor format
0135_20090825_234428_Langseth.all.mb58.gz 4.16MB Kongsberg multibeam vendor format
0136_20090826_001409_Langseth.all.mb58.gz 0.86MB Kongsberg multibeam vendor format
0137_20090826_002400_Langseth.all.mb58.gz 3.77MB Kongsberg multibeam vendor format
0138_20090826_005412_Langseth.all.mb58.gz 1.61MB Kongsberg multibeam vendor format
0139_20090826_010946_Langseth.all.mb58.gz 4.49MB Kongsberg multibeam vendor format
0140_20090826_013939_Langseth.all.mb58.gz 1.98MB Kongsberg multibeam vendor format
0141_20090826_015911_Langseth.all.mb58.gz 4.11MB Kongsberg multibeam vendor format
0142_20090826_022854_Langseth.all.mb58.gz 1.81MB Kongsberg multibeam vendor format
0143_20090826_031452_Langseth.all.mb58.gz 4.09MB Kongsberg multibeam vendor format
0144_20090826_034437_Langseth.all.mb58.gz 2.73MB Kongsberg multibeam vendor format
0145_20090826_041501_Langseth.all.mb58.gz 3.83MB Kongsberg multibeam vendor format
0146_20090826_044451_Langseth.all.mb58.gz 2.07MB Kongsberg multibeam vendor format
0147_20090826_051418_Langseth.all.mb58.gz 3.86MB Kongsberg multibeam vendor format
0148_20090826_054405_Langseth.all.mb58.gz 0.69MB Kongsberg multibeam vendor format
0149_20090826_061332_Langseth.all.mb58.gz 3.86MB Kongsberg multibeam vendor format
0150_20090826_064327_Langseth.all.mb58.gz 73.0KB Kongsberg multibeam vendor format
0151_20090826_065135_Langseth.all.mb58.gz 4.23MB Kongsberg multibeam vendor format
0152_20090826_072123_Langseth.all.mb58.gz 0.66MB Kongsberg multibeam vendor format
0153_20090826_073222_Langseth.all.mb58.gz 4.33MB Kongsberg multibeam vendor format
0154_20090826_080225_Langseth.all.mb58.gz 2.36MB Kongsberg multibeam vendor format
0155_20090826_082055_Langseth.all.mb58.gz 4.12MB Kongsberg multibeam vendor format
0156_20090826_085104_Langseth.all.mb58.gz 1.23MB Kongsberg multibeam vendor format
0157_20090826_091317_Langseth.all.mb58.gz 3.96MB Kongsberg multibeam vendor format
0158_20090826_094321_Langseth.all.mb58.gz 1.09MB Kongsberg multibeam vendor format
0159_20090826_095658_Langseth.all.mb58.gz 4.02MB Kongsberg multibeam vendor format
0160_20090826_102641_Langseth.all.mb58.gz 38.9KB Kongsberg multibeam vendor format
0161_20090826_103034_Langseth.all.mb58.gz 3.99MB Kongsberg multibeam vendor format
0162_20090826_110046_Langseth.all.mb58.gz 0.58MB Kongsberg multibeam vendor format
0163_20090826_110827_Langseth.all.mb58.gz 3.57MB Kongsberg multibeam vendor format
0164_20090826_114106_Langseth.all.mb58.gz 4.23MB Kongsberg multibeam vendor format
0165_20090826_121118_Langseth.all.mb58.gz 4.50MB Kongsberg multibeam vendor format
0166_20090826_124116_Langseth.all.mb58.gz 0.99MB Kongsberg multibeam vendor format
0167_20090826_125024_Langseth.all.mb58.gz 4.30MB Kongsberg multibeam vendor format
0168_20090826_132032_Langseth.all.mb58.gz 4.05MB Kongsberg multibeam vendor format
0169_20090826_135436_Langseth.all.mb58.gz 4.31MB Kongsberg multibeam vendor format
0170_20090826_142438_Langseth.all.mb58.gz 2.96MB Kongsberg multibeam vendor format
0171_20090826_145103_Langseth.all.mb58.gz 4.31MB Kongsberg multibeam vendor format
0172_20090826_152111_Langseth.all.mb58.gz 3.53MB Kongsberg multibeam vendor format
0173_20090826_155659_Langseth.all.mb58.gz 3.92MB Kongsberg multibeam vendor format
0174_20090826_162704_Langseth.all.mb58.gz 1.07MB Kongsberg multibeam vendor format
0175_20090826_163931_Langseth.all.mb58.gz 3.98MB Kongsberg multibeam vendor format
0176_20090826_170945_Langseth.all.mb58.gz 3.89MB Kongsberg multibeam vendor format
0177_20090826_173942_Langseth.all.mb58.gz 135.0KB Kongsberg multibeam vendor format
0178_20090826_174823_Langseth.all.mb58.gz 3.61MB Kongsberg multibeam vendor format
0179_20090826_181812_Langseth.all.mb58.gz 3.50MB Kongsberg multibeam vendor format
0180_20090826_184807_Langseth.all.mb58.gz 3.45MB Kongsberg multibeam vendor format
0181_20090826_191804_Langseth.all.mb58.gz 305.9KB Kongsberg multibeam vendor format
0182_20090826_193020_Langseth.all.mb58.gz 3.71MB Kongsberg multibeam vendor format
0183_20090826_200031_Langseth.all.mb58.gz 3.45MB Kongsberg multibeam vendor format
0184_20090826_203033_Langseth.all.mb58.gz 3.57MB Kongsberg multibeam vendor format
0185_20090826_210025_Langseth.all.mb58.gz 4.41MB Kongsberg multibeam vendor format
0186_20090826_213031_Langseth.all.mb58.gz 4.48MB Kongsberg multibeam vendor format
0187_20090826_220030_Langseth.all.mb58.gz 4.34MB Kongsberg multibeam vendor format
0188_20090826_223028_Langseth.all.mb58.gz 4.10MB Kongsberg multibeam vendor format
0189_20090826_230027_Langseth.all.mb58.gz 4.18MB Kongsberg multibeam vendor format
0190_20090826_233026_Langseth.all.mb58.gz 4.25MB Kongsberg multibeam vendor format
0191_20090827_000026_Langseth.all.mb58.gz 4.23MB Kongsberg multibeam vendor format
0192_20090827_003027_Langseth.all.mb58.gz 4.48MB Kongsberg multibeam vendor format
0193_20090827_010026_Langseth.all.mb58.gz 4.60MB Kongsberg multibeam vendor format
0194_20090827_013021_Langseth.all.mb58.gz 4.60MB Kongsberg multibeam vendor format
0195_20090827_020024_Langseth.all.mb58.gz 4.22MB Kongsberg multibeam vendor format
0196_20090827_023023_Langseth.all.mb58.gz 4.23MB Kongsberg multibeam vendor format
0197_20090827_030030_Langseth.all.mb58.gz 4.40MB Kongsberg multibeam vendor format
0198_20090827_033020_Langseth.all.mb58.gz 4.53MB Kongsberg multibeam vendor format
0199_20090827_040032_Langseth.all.mb58.gz 4.50MB Kongsberg multibeam vendor format
0200_20090827_043021_Langseth.all.mb58.gz 4.77MB Kongsberg multibeam vendor format
0201_20090827_050029_Langseth.all.mb58.gz 4.31MB Kongsberg multibeam vendor format
0202_20090827_053024_Langseth.all.mb58.gz 4.07MB Kongsberg multibeam vendor format
0203_20090827_060029_Langseth.all.mb58.gz 4.07MB Kongsberg multibeam vendor format
0204_20090827_063031_Langseth.all.mb58.gz 4.14MB Kongsberg multibeam vendor format
0205_20090827_070030_Langseth.all.mb58.gz 3.96MB Kongsberg multibeam vendor format
0206_20090827_073027_Langseth.all.mb58.gz 4.18MB Kongsberg multibeam vendor format
0207_20090827_080029_Langseth.all.mb58.gz 4.44MB Kongsberg multibeam vendor format
0208_20090827_083023_Langseth.all.mb58.gz 4.29MB Kongsberg multibeam vendor format
0209_20090827_090028_Langseth.all.mb58.gz 4.33MB Kongsberg multibeam vendor format
0210_20090827_093022_Langseth.all.mb58.gz 4.33MB Kongsberg multibeam vendor format
0211_20090827_100023_Langseth.all.mb58.gz 4.64MB Kongsberg multibeam vendor format
0212_20090827_103020_Langseth.all.mb58.gz 4.55MB Kongsberg multibeam vendor format
0213_20090827_110024_Langseth.all.mb58.gz 4.69MB Kongsberg multibeam vendor format
0214_20090827_113026_Langseth.all.mb58.gz 4.68MB Kongsberg multibeam vendor format
0215_20090827_120019_Langseth.all.mb58.gz 4.72MB Kongsberg multibeam vendor format
0216_20090827_123024_Langseth.all.mb58.gz 4.65MB Kongsberg multibeam vendor format
0217_20090827_130024_Langseth.all.mb58.gz 4.67MB Kongsberg multibeam vendor format
0218_20090827_133024_Langseth.all.mb58.gz 4.60MB Kongsberg multibeam vendor format
0219_20090827_140022_Langseth.all.mb58.gz 4.94MB Kongsberg multibeam vendor format
0220_20090827_143019_Langseth.all.mb58.gz 4.79MB Kongsberg multibeam vendor format
0221_20090827_150028_Langseth.all.mb58.gz 3.83MB Kongsberg multibeam vendor format
0222_20090827_153020_Langseth.all.mb58.gz 3.78MB Kongsberg multibeam vendor format
0223_20090827_160025_Langseth.all.mb58.gz 4.36MB Kongsberg multibeam vendor format
0224_20090827_163020_Langseth.all.mb58.gz 4.57MB Kongsberg multibeam vendor format
0225_20090827_170019_Langseth.all.mb58.gz 4.70MB Kongsberg multibeam vendor format
0226_20090827_173020_Langseth.all.mb58.gz 4.91MB Kongsberg multibeam vendor format
0227_20090827_180028_Langseth.all.mb58.gz 4.42MB Kongsberg multibeam vendor format
0228_20090827_183023_Langseth.all.mb58.gz 4.71MB Kongsberg multibeam vendor format
0229_20090827_190019_Langseth.all.mb58.gz 4.71MB Kongsberg multibeam vendor format
0230_20090827_193023_Langseth.all.mb58.gz 4.98MB Kongsberg multibeam vendor format
0231_20090827_200021_Langseth.all.mb58.gz 4.47MB Kongsberg multibeam vendor format
0232_20090827_203023_Langseth.all.mb58.gz 4.14MB Kongsberg multibeam vendor format
0233_20090827_210019_Langseth.all.mb58.gz 4.71MB Kongsberg multibeam vendor format
0234_20090827_213019_Langseth.all.mb58.gz 4.69MB Kongsberg multibeam vendor format
0235_20090827_220020_Langseth.all.mb58.gz 4.57MB Kongsberg multibeam vendor format
0236_20090827_223029_Langseth.all.mb58.gz 4.41MB Kongsberg multibeam vendor format
0237_20090827_230028_Langseth.all.mb58.gz 4.41MB Kongsberg multibeam vendor format
0238_20090827_233022_Langseth.all.mb58.gz 4.09MB Kongsberg multibeam vendor format
0239_20090828_000028_Langseth.all.mb58.gz 3.68MB Kongsberg multibeam vendor format
0240_20090828_003041_Langseth.all.mb58.gz 3.75MB Kongsberg multibeam vendor format
0241_20090828_010033_Langseth.all.mb58.gz 3.48MB Kongsberg multibeam vendor format
0242_20090828_013022_Langseth.all.mb58.gz 3.25MB Kongsberg multibeam vendor format
0243_20090828_020030_Langseth.all.mb58.gz 3.42MB Kongsberg multibeam vendor format
0244_20090828_023025_Langseth.all.mb58.gz 3.42MB Kongsberg multibeam vendor format
0245_20090828_030027_Langseth.all.mb58.gz 3.35MB Kongsberg multibeam vendor format
0246_20090828_033031_Langseth.all.mb58.gz 3.27MB Kongsberg multibeam vendor format
0247_20090828_040034_Langseth.all.mb58.gz 3.35MB Kongsberg multibeam vendor format
0248_20090828_043023_Langseth.all.mb58.gz 3.66MB Kongsberg multibeam vendor format
0249_20090828_050029_Langseth.all.mb58.gz 3.61MB Kongsberg multibeam vendor format
0250_20090828_053024_Langseth.all.mb58.gz 3.45MB Kongsberg multibeam vendor format
0251_20090828_060038_Langseth.all.mb58.gz 3.41MB Kongsberg multibeam vendor format
0252_20090828_063033_Langseth.all.mb58.gz 3.42MB Kongsberg multibeam vendor format
0253_20090828_070018_Langseth.all.mb58.gz 3.53MB Kongsberg multibeam vendor format
0254_20090828_073036_Langseth.all.mb58.gz 3.71MB Kongsberg multibeam vendor format
0255_20090828_080020_Langseth.all.mb58.gz 4.35MB Kongsberg multibeam vendor format
0256_20090828_083019_Langseth.all.mb58.gz 4.15MB Kongsberg multibeam vendor format
0257_20090828_090023_Langseth.all.mb58.gz 4.44MB Kongsberg multibeam vendor format
0258_20090828_093022_Langseth.all.mb58.gz 4.34MB Kongsberg multibeam vendor format
0259_20090828_100019_Langseth.all.mb58.gz 4.14MB Kongsberg multibeam vendor format
0260_20090828_103020_Langseth.all.mb58.gz 3.66MB Kongsberg multibeam vendor format
0261_20090828_110031_Langseth.all.mb58.gz 3.83MB Kongsberg multibeam vendor format
0262_20090828_113026_Langseth.all.mb58.gz 3.99MB Kongsberg multibeam vendor format
0263_20090828_120023_Langseth.all.mb58.gz 3.96MB Kongsberg multibeam vendor format
0264_20090828_123030_Langseth.all.mb58.gz 4.24MB Kongsberg multibeam vendor format
0265_20090828_130030_Langseth.all.mb58.gz 3.93MB Kongsberg multibeam vendor format
0266_20090828_133030_Langseth.all.mb58.gz 3.86MB Kongsberg multibeam vendor format
0267_20090828_140022_Langseth.all.mb58.gz 3.75MB Kongsberg multibeam vendor format
0268_20090828_143021_Langseth.all.mb58.gz 3.74MB Kongsberg multibeam vendor format
0269_20090828_150021_Langseth.all.mb58.gz 3.72MB Kongsberg multibeam vendor format
0270_20090828_153022_Langseth.all.mb58.gz 4.15MB Kongsberg multibeam vendor format
0271_20090828_160023_Langseth.all.mb58.gz 3.34MB Kongsberg multibeam vendor format
0272_20090828_163020_Langseth.all.mb58.gz 3.88MB Kongsberg multibeam vendor format
0273_20090828_170022_Langseth.all.mb58.gz 4.18MB Kongsberg multibeam vendor format
0274_20090828_173020_Langseth.all.mb58.gz 4.40MB Kongsberg multibeam vendor format
0275_20090828_180023_Langseth.all.mb58.gz 4.41MB Kongsberg multibeam vendor format
0276_20090828_183023_Langseth.all.mb58.gz 4.40MB Kongsberg multibeam vendor format
0277_20090828_190019_Langseth.all.mb58.gz 4.35MB Kongsberg multibeam vendor format
0278_20090828_193020_Langseth.all.mb58.gz 4.35MB Kongsberg multibeam vendor format
0279_20090828_200020_Langseth.all.mb58.gz 4.49MB Kongsberg multibeam vendor format
0280_20090828_203026_Langseth.all.mb58.gz 4.48MB Kongsberg multibeam vendor format
0281_20090828_210017_Langseth.all.mb58.gz 4.55MB Kongsberg multibeam vendor format
0282_20090828_213019_Langseth.all.mb58.gz 4.55MB Kongsberg multibeam vendor format
0283_20090828_220018_Langseth.all.mb58.gz 4.50MB Kongsberg multibeam vendor format
0284_20090828_223020_Langseth.all.mb58.gz 4.33MB Kongsberg multibeam vendor format
0285_20090828_230016_Langseth.all.mb58.gz 4.00MB Kongsberg multibeam vendor format
0286_20090828_233024_Langseth.all.mb58.gz 3.97MB Kongsberg multibeam vendor format
0287_20090829_000025_Langseth.all.mb58.gz 3.80MB Kongsberg multibeam vendor format
0288_20090829_003032_Langseth.all.mb58.gz 3.68MB Kongsberg multibeam vendor format
0289_20090829_010022_Langseth.all.mb58.gz 4.02MB Kongsberg multibeam vendor format
0290_20090829_013020_Langseth.all.mb58.gz 3.90MB Kongsberg multibeam vendor format
0291_20090829_020032_Langseth.all.mb58.gz 3.95MB Kongsberg multibeam vendor format
0292_20090829_023018_Langseth.all.mb58.gz 4.31MB Kongsberg multibeam vendor format
0293_20090829_030027_Langseth.all.mb58.gz 4.00MB Kongsberg multibeam vendor format
0294_20090829_033028_Langseth.all.mb58.gz 2.51MB Kongsberg multibeam vendor format
0295_20090829_040949_Langseth.all.mb58.gz 3.58MB Kongsberg multibeam vendor format
0296_20090829_043937_Langseth.all.mb58.gz 4.07MB Kongsberg multibeam vendor format
0297_20090829_050934_Langseth.all.mb58.gz 4.20MB Kongsberg multibeam vendor format
0298_20090829_053932_Langseth.all.mb58.gz 4.25MB Kongsberg multibeam vendor format
0299_20090829_060941_Langseth.all.mb58.gz 4.23MB Kongsberg multibeam vendor format
0300_20090829_063937_Langseth.all.mb58.gz 4.21MB Kongsberg multibeam vendor format
0301_20090829_070937_Langseth.all.mb58.gz 3.71MB Kongsberg multibeam vendor format
0302_20090829_073930_Langseth.all.mb58.gz 4.53MB Kongsberg multibeam vendor format
0303_20090829_080943_Langseth.all.mb58.gz 4.41MB Kongsberg multibeam vendor format
0304_20090829_083940_Langseth.all.mb58.gz 4.22MB Kongsberg multibeam vendor format
0305_20090829_090931_Langseth.all.mb58.gz 4.07MB Kongsberg multibeam vendor format
0306_20090829_093941_Langseth.all.mb58.gz 3.65MB Kongsberg multibeam vendor format
0307_20090829_100944_Langseth.all.mb58.gz 56.5KB Kongsberg multibeam vendor format
0307_20090829_104035_Langseth.all.mb58.gz 3.68MB Kongsberg multibeam vendor format
0308_20090829_111039_Langseth.all.mb58.gz 3.75MB Kongsberg multibeam vendor format
0309_20090829_114043_Langseth.all.mb58.gz 3.93MB Kongsberg multibeam vendor format
0310_20090829_121053_Langseth.all.mb58.gz 4.14MB Kongsberg multibeam vendor format
0311_20090829_124038_Langseth.all.mb58.gz 4.38MB Kongsberg multibeam vendor format
0312_20090829_131044_Langseth.all.mb58.gz 4.31MB Kongsberg multibeam vendor format
0313_20090829_134046_Langseth.all.mb58.gz 4.11MB Kongsberg multibeam vendor format
0314_20090829_141050_Langseth.all.mb58.gz 3.80MB Kongsberg multibeam vendor format
0315_20090829_144047_Langseth.all.mb58.gz 4.06MB Kongsberg multibeam vendor format
0316_20090829_151043_Langseth.all.mb58.gz 4.47MB Kongsberg multibeam vendor format
0317_20090829_154046_Langseth.all.mb58.gz 3.58MB Kongsberg multibeam vendor format
0318_20090829_161038_Langseth.all.mb58.gz 3.27MB Kongsberg multibeam vendor format
0319_20090829_164045_Langseth.all.mb58.gz 3.41MB Kongsberg multibeam vendor format
0320_20090829_171047_Langseth.all.mb58.gz 3.35MB Kongsberg multibeam vendor format
0321_20090829_174042_Langseth.all.mb58.gz 3.81MB Kongsberg multibeam vendor format
0322_20090829_181045_Langseth.all.mb58.gz 4.24MB Kongsberg multibeam vendor format
0323_20090829_184047_Langseth.all.mb58.gz 4.10MB Kongsberg multibeam vendor format
0324_20090829_191042_Langseth.all.mb58.gz 4.07MB Kongsberg multibeam vendor format
0325_20090829_194041_Langseth.all.mb58.gz 4.15MB Kongsberg multibeam vendor format
0326_20090829_201047_Langseth.all.mb58.gz 4.00MB Kongsberg multibeam vendor format
0327_20090829_204047_Langseth.all.mb58.gz 4.05MB Kongsberg multibeam vendor format
0328_20090829_211049_Langseth.all.mb58.gz 4.10MB Kongsberg multibeam vendor format
0329_20090829_214050_Langseth.all.mb58.gz 4.08MB Kongsberg multibeam vendor format
0330_20090829_221036_Langseth.all.mb58.gz 4.19MB Kongsberg multibeam vendor format
0331_20090829_224050_Langseth.all.mb58.gz 4.00MB Kongsberg multibeam vendor format
0332_20090829_231046_Langseth.all.mb58.gz 4.09MB Kongsberg multibeam vendor format
0333_20090829_234044_Langseth.all.mb58.gz 4.01MB Kongsberg multibeam vendor format
0334_20090830_001038_Langseth.all.mb58.gz 4.18MB Kongsberg multibeam vendor format
0335_20090830_004040_Langseth.all.mb58.gz 4.18MB Kongsberg multibeam vendor format
0336_20090830_011043_Langseth.all.mb58.gz 4.24MB Kongsberg multibeam vendor format
0337_20090830_014042_Langseth.all.mb58.gz 4.20MB Kongsberg multibeam vendor format
0338_20090830_021042_Langseth.all.mb58.gz 4.21MB Kongsberg multibeam vendor format
0339_20090830_024045_Langseth.all.mb58.gz 4.20MB Kongsberg multibeam vendor format
0340_20090830_031042_Langseth.all.mb58.gz 4.20MB Kongsberg multibeam vendor format
0341_20090830_034043_Langseth.all.mb58.gz 4.09MB Kongsberg multibeam vendor format
0342_20090830_041047_Langseth.all.mb58.gz 4.05MB Kongsberg multibeam vendor format
0343_20090830_044046_Langseth.all.mb58.gz 4.07MB Kongsberg multibeam vendor format
0344_20090830_051039_Langseth.all.mb58.gz 4.10MB Kongsberg multibeam vendor format
0345_20090830_054037_Langseth.all.mb58.gz 4.03MB Kongsberg multibeam vendor format
0346_20090830_061038_Langseth.all.mb58.gz 4.06MB Kongsberg multibeam vendor format
0347_20090830_064040_Langseth.all.mb58.gz 3.99MB Kongsberg multibeam vendor format
0348_20090830_071041_Langseth.all.mb58.gz 4.03MB Kongsberg multibeam vendor format
0349_20090830_074042_Langseth.all.mb58.gz 4.04MB Kongsberg multibeam vendor format
0350_20090830_081039_Langseth.all.mb58.gz 4.10MB Kongsberg multibeam vendor format
0351_20090830_084036_Langseth.all.mb58.gz 4.15MB Kongsberg multibeam vendor format
0352_20090830_091044_Langseth.all.mb58.gz 4.14MB Kongsberg multibeam vendor format
0353_20090830_094036_Langseth.all.mb58.gz 4.14MB Kongsberg multibeam vendor format
0354_20090830_101035_Langseth.all.mb58.gz 4.28MB Kongsberg multibeam vendor format
0355_20090830_104035_Langseth.all.mb58.gz 4.07MB Kongsberg multibeam vendor format
0356_20090830_111040_Langseth.all.mb58.gz 4.04MB Kongsberg multibeam vendor format
0357_20090830_114042_Langseth.all.mb58.gz 4.04MB Kongsberg multibeam vendor format
0358_20090830_121047_Langseth.all.mb58.gz 4.00MB Kongsberg multibeam vendor format
0359_20090830_124046_Langseth.all.mb58.gz 4.08MB Kongsberg multibeam vendor format
0360_20090830_131045_Langseth.all.mb58.gz 4.12MB Kongsberg multibeam vendor format
0361_20090830_134036_Langseth.all.mb58.gz 4.32MB Kongsberg multibeam vendor format
0362_20090830_141036_Langseth.all.mb58.gz 4.26MB Kongsberg multibeam vendor format
0363_20090830_144046_Langseth.all.mb58.gz 4.22MB Kongsberg multibeam vendor format
0364_20090830_151037_Langseth.all.mb58.gz 4.31MB Kongsberg multibeam vendor format
0365_20090830_154037_Langseth.all.mb58.gz 4.44MB Kongsberg multibeam vendor format
0366_20090830_161043_Langseth.all.mb58.gz 4.04MB Kongsberg multibeam vendor format
0367_20090830_164045_Langseth.all.mb58.gz 3.79MB Kongsberg multibeam vendor format
0368_20090830_171036_Langseth.all.mb58.gz 4.28MB Kongsberg multibeam vendor format
0369_20090830_174035_Langseth.all.mb58.gz 4.30MB Kongsberg multibeam vendor format
0370_20090830_181034_Langseth.all.mb58.gz 4.22MB Kongsberg multibeam vendor format
0371_20090830_184042_Langseth.all.mb58.gz 4.41MB Kongsberg multibeam vendor format
0372_20090830_191039_Langseth.all.mb58.gz 4.43MB Kongsberg multibeam vendor format
0373_20090830_194044_Langseth.all.mb58.gz 4.47MB Kongsberg multibeam vendor format
0374_20090830_201044_Langseth.all.mb58.gz 4.25MB Kongsberg multibeam vendor format
0375_20090830_204038_Langseth.all.mb58.gz 4.39MB Kongsberg multibeam vendor format
0376_20090830_211039_Langseth.all.mb58.gz 4.20MB Kongsberg multibeam vendor format
0377_20090830_214042_Langseth.all.mb58.gz 3.68MB Kongsberg multibeam vendor format
0378_20090830_221044_Langseth.all.mb58.gz 3.60MB Kongsberg multibeam vendor format
0379_20090830_224042_Langseth.all.mb58.gz 4.06MB Kongsberg multibeam vendor format
0380_20090830_231040_Langseth.all.mb58.gz 4.47MB Kongsberg multibeam vendor format
0381_20090830_234034_Langseth.all.mb58.gz 4.48MB Kongsberg multibeam vendor format
0382_20090831_001045_Langseth.all.mb58.gz 4.33MB Kongsberg multibeam vendor format
0383_20090831_004044_Langseth.all.mb58.gz 4.15MB Kongsberg multibeam vendor format
0384_20090831_011043_Langseth.all.mb58.gz 3.60MB Kongsberg multibeam vendor format
0385_20090831_014048_Langseth.all.mb58.gz 3.23MB Kongsberg multibeam vendor format
0386_20090831_021042_Langseth.all.mb58.gz 3.27MB Kongsberg multibeam vendor format
0387_20090831_024035_Langseth.all.mb58.gz 3.31MB Kongsberg multibeam vendor format
0388_20090831_031043_Langseth.all.mb58.gz 3.68MB Kongsberg multibeam vendor format
0389_20090831_034040_Langseth.all.mb58.gz 3.67MB Kongsberg multibeam vendor format
0390_20090831_041043_Langseth.all.mb58.gz 3.56MB Kongsberg multibeam vendor format
0391_20090831_044036_Langseth.all.mb58.gz 3.78MB Kongsberg multibeam vendor format
0392_20090831_051037_Langseth.all.mb58.gz 3.70MB Kongsberg multibeam vendor format
0393_20090831_054035_Langseth.all.mb58.gz 3.45MB Kongsberg multibeam vendor format
0394_20090831_061046_Langseth.all.mb58.gz 3.42MB Kongsberg multibeam vendor format
0395_20090831_064040_Langseth.all.mb58.gz 3.40MB Kongsberg multibeam vendor format
0396_20090831_071046_Langseth.all.mb58.gz 3.43MB Kongsberg multibeam vendor format
0397_20090831_074040_Langseth.all.mb58.gz 4.00MB Kongsberg multibeam vendor format
0398_20090831_081038_Langseth.all.mb58.gz 3.84MB Kongsberg multibeam vendor format
0399_20090831_084053_Langseth.all.mb58.gz 3.50MB Kongsberg multibeam vendor format
0400_20090831_091034_Langseth.all.mb58.gz 3.33MB Kongsberg multibeam vendor format
0401_20090831_094034_Langseth.all.mb58.gz 3.35MB Kongsberg multibeam vendor format
0402_20090831_101044_Langseth.all.mb58.gz 3.48MB Kongsberg multibeam vendor format
0403_20090831_104041_Langseth.all.mb58.gz 3.45MB Kongsberg multibeam vendor format
0404_20090831_111050_Langseth.all.mb58.gz 3.48MB Kongsberg multibeam vendor format
0405_20090831_114039_Langseth.all.mb58.gz 3.72MB Kongsberg multibeam vendor format
0406_20090831_121044_Langseth.all.mb58.gz 3.57MB Kongsberg multibeam vendor format
0407_20090831_124041_Langseth.all.mb58.gz 3.49MB Kongsberg multibeam vendor format
0408_20090831_131052_Langseth.all.mb58.gz 3.38MB Kongsberg multibeam vendor format
0409_20090831_134048_Langseth.all.mb58.gz 3.37MB Kongsberg multibeam vendor format
0410_20090831_141050_Langseth.all.mb58.gz 3.34MB Kongsberg multibeam vendor format
0411_20090831_144045_Langseth.all.mb58.gz 3.50MB Kongsberg multibeam vendor format
0412_20090831_151036_Langseth.all.mb58.gz 3.91MB Kongsberg multibeam vendor format
0413_20090831_154034_Langseth.all.mb58.gz 3.81MB Kongsberg multibeam vendor format
0414_20090831_161038_Langseth.all.mb58.gz 3.55MB Kongsberg multibeam vendor format
0415_20090831_164042_Langseth.all.mb58.gz 3.55MB Kongsberg multibeam vendor format
0416_20090831_171038_Langseth.all.mb58.gz 3.81MB Kongsberg multibeam vendor format
0417_20090831_174039_Langseth.all.mb58.gz 3.94MB Kongsberg multibeam vendor format
0418_20090831_181042_Langseth.all.mb58.gz 3.83MB Kongsberg multibeam vendor format
0419_20090831_184034_Langseth.all.mb58.gz 3.63MB Kongsberg multibeam vendor format
0420_20090831_191040_Langseth.all.mb58.gz 3.57MB Kongsberg multibeam vendor format
0421_20090831_194045_Langseth.all.mb58.gz 3.67MB Kongsberg multibeam vendor format
0422_20090831_201034_Langseth.all.mb58.gz 3.93MB Kongsberg multibeam vendor format
0423_20090831_204032_Langseth.all.mb58.gz 3.52MB Kongsberg multibeam vendor format
0424_20090831_211050_Langseth.all.mb58.gz 3.22MB Kongsberg multibeam vendor format
0425_20090831_214040_Langseth.all.mb58.gz 3.32MB Kongsberg multibeam vendor format
0426_20090831_221045_Langseth.all.mb58.gz 3.27MB Kongsberg multibeam vendor format
0427_20090831_224039_Langseth.all.mb58.gz 3.36MB Kongsberg multibeam vendor format
0428_20090831_231039_Langseth.all.mb58.gz 3.20MB Kongsberg multibeam vendor format
0429_20090831_234043_Langseth.all.mb58.gz 3.26MB Kongsberg multibeam vendor format
0430_20090901_001044_Langseth.all.mb58.gz 3.33MB Kongsberg multibeam vendor format
0431_20090901_004040_Langseth.all.mb58.gz 3.32MB Kongsberg multibeam vendor format
0432_20090901_011048_Langseth.all.mb58.gz 4.15MB Kongsberg multibeam vendor format
0433_20090901_014045_Langseth.all.mb58.gz 3.56MB Kongsberg multibeam vendor format
0434_20090901_021045_Langseth.all.mb58.gz 3.13MB Kongsberg multibeam vendor format
0435_20090901_024053_Langseth.all.mb58.gz 3.10MB Kongsberg multibeam vendor format
0436_20090901_031035_Langseth.all.mb58.gz 3.75MB Kongsberg multibeam vendor format
0437_20090901_034033_Langseth.all.mb58.gz 3.89MB Kongsberg multibeam vendor format
0438_20090901_041034_Langseth.all.mb58.gz 4.08MB Kongsberg multibeam vendor format
0439_20090901_044032_Langseth.all.mb58.gz 4.08MB Kongsberg multibeam vendor format
0440_20090901_051045_Langseth.all.mb58.gz 3.79MB Kongsberg multibeam vendor format
0441_20090901_054035_Langseth.all.mb58.gz 3.77MB Kongsberg multibeam vendor format
0442_20090901_061036_Langseth.all.mb58.gz 3.83MB Kongsberg multibeam vendor format
0443_20090901_064040_Langseth.all.mb58.gz 3.98MB Kongsberg multibeam vendor format
0444_20090901_071044_Langseth.all.mb58.gz 4.10MB Kongsberg multibeam vendor format
0445_20090901_074035_Langseth.all.mb58.gz 4.09MB Kongsberg multibeam vendor format
0446_20090901_081035_Langseth.all.mb58.gz 3.65MB Kongsberg multibeam vendor format
0447_20090901_084035_Langseth.all.mb58.gz 3.95MB Kongsberg multibeam vendor format
0448_20090901_091034_Langseth.all.mb58.gz 4.13MB Kongsberg multibeam vendor format
0449_20090901_094052_Langseth.all.mb58.gz 4.01MB Kongsberg multibeam vendor format
0450_20090901_101055_Langseth.all.mb58.gz 3.97MB Kongsberg multibeam vendor format
0451_20090901_104102_Langseth.all.mb58.gz 3.42MB Kongsberg multibeam vendor format
0452_20090901_111056_Langseth.all.mb58.gz 3.40MB Kongsberg multibeam vendor format
0453_20090901_114107_Langseth.all.mb58.gz 3.35MB Kongsberg multibeam vendor format
0454_20090901_121050_Langseth.all.mb58.gz 3.36MB Kongsberg multibeam vendor format
0455_20090901_124048_Langseth.all.mb58.gz 3.33MB Kongsberg multibeam vendor format
0456_20090901_131102_Langseth.all.mb58.gz 3.46MB Kongsberg multibeam vendor format
0457_20090901_134054_Langseth.all.mb58.gz 3.51MB Kongsberg multibeam vendor format
0458_20090901_141100_Langseth.all.mb58.gz 3.50MB Kongsberg multibeam vendor format
0459_20090901_144103_Langseth.all.mb58.gz 3.43MB Kongsberg multibeam vendor format
0460_20090901_151104_Langseth.all.mb58.gz 3.32MB Kongsberg multibeam vendor format
0461_20090901_154057_Langseth.all.mb58.gz 3.24MB Kongsberg multibeam vendor format
0462_20090901_161044_Langseth.all.mb58.gz 3.30MB Kongsberg multibeam vendor format
0463_20090901_164102_Langseth.all.mb58.gz 3.55MB Kongsberg multibeam vendor format
0464_20090901_171052_Langseth.all.mb58.gz 3.49MB Kongsberg multibeam vendor format
0465_20090901_174045_Langseth.all.mb58.gz 3.37MB Kongsberg multibeam vendor format
0466_20090901_181057_Langseth.all.mb58.gz 3.90MB Kongsberg multibeam vendor format
0467_20090901_184057_Langseth.all.mb58.gz 3.94MB Kongsberg multibeam vendor format
0468_20090901_191046_Langseth.all.mb58.gz 3.47MB Kongsberg multibeam vendor format
0469_20090901_194055_Langseth.all.mb58.gz 3.13MB Kongsberg multibeam vendor format
0470_20090901_201051_Langseth.all.mb58.gz 3.25MB Kongsberg multibeam vendor format
0471_20090901_204057_Langseth.all.mb58.gz 3.34MB Kongsberg multibeam vendor format
0472_20090901_211052_Langseth.all.mb58.gz 3.69MB Kongsberg multibeam vendor format
0473_20090901_214059_Langseth.all.mb58.gz 3.69MB Kongsberg multibeam vendor format
0474_20090901_221049_Langseth.all.mb58.gz 3.80MB Kongsberg multibeam vendor format
0475_20090901_224056_Langseth.all.mb58.gz 3.53MB Kongsberg multibeam vendor format
0476_20090901_231057_Langseth.all.mb58.gz 3.47MB Kongsberg multibeam vendor format
0477_20090901_234048_Langseth.all.mb58.gz 3.50MB Kongsberg multibeam vendor format
0478_20090902_001056_Langseth.all.mb58.gz 3.29MB Kongsberg multibeam vendor format
0479_20090902_004044_Langseth.all.mb58.gz 3.21MB Kongsberg multibeam vendor format
0480_20090902_011045_Langseth.all.mb58.gz 3.45MB Kongsberg multibeam vendor format
0481_20090902_014059_Langseth.all.mb58.gz 3.69MB Kongsberg multibeam vendor format
0482_20090902_021044_Langseth.all.mb58.gz 3.70MB Kongsberg multibeam vendor format
0483_20090902_024050_Langseth.all.mb58.gz 3.33MB Kongsberg multibeam vendor format
0484_20090902_031059_Langseth.all.mb58.gz 3.20MB Kongsberg multibeam vendor format
0485_20090902_034046_Langseth.all.mb58.gz 3.67MB Kongsberg multibeam vendor format
0486_20090902_041049_Langseth.all.mb58.gz 4.02MB Kongsberg multibeam vendor format
0487_20090902_044052_Langseth.all.mb58.gz 4.00MB Kongsberg multibeam vendor format
0488_20090902_051057_Langseth.all.mb58.gz 3.26MB Kongsberg multibeam vendor format
0489_20090902_054050_Langseth.all.mb58.gz 3.33MB Kongsberg multibeam vendor format
0490_20090902_061101_Langseth.all.mb58.gz 3.51MB Kongsberg multibeam vendor format
0491_20090902_064048_Langseth.all.mb58.gz 3.51MB Kongsberg multibeam vendor format
0492_20090902_071049_Langseth.all.mb58.gz 3.46MB Kongsberg multibeam vendor format
0493_20090902_074045_Langseth.all.mb58.gz 3.32MB Kongsberg multibeam vendor format
0494_20090902_081047_Langseth.all.mb58.gz 3.35MB Kongsberg multibeam vendor format
0495_20090902_084048_Langseth.all.mb58.gz 3.25MB Kongsberg multibeam vendor format
0496_20090902_091045_Langseth.all.mb58.gz 3.11MB Kongsberg multibeam vendor format
0497_20090902_094056_Langseth.all.mb58.gz 3.02MB Kongsberg multibeam vendor format
0498_20090902_101054_Langseth.all.mb58.gz 3.04MB Kongsberg multibeam vendor format
0499_20090902_104051_Langseth.all.mb58.gz 3.03MB Kongsberg multibeam vendor format
0500_20090902_111046_Langseth.all.mb58.gz 3.38MB Kongsberg multibeam vendor format
0501_20090902_114101_Langseth.all.mb58.gz 3.54MB Kongsberg multibeam vendor format
0502_20090902_121054_Langseth.all.mb58.gz 2.92MB Kongsberg multibeam vendor format
0503_20090902_124056_Langseth.all.mb58.gz 3.14MB Kongsberg multibeam vendor format
0504_20090902_131059_Langseth.all.mb58.gz 3.02MB Kongsberg multibeam vendor format
0505_20090902_134051_Langseth.all.mb58.gz 3.14MB Kongsberg multibeam vendor format
0506_20090902_141102_Langseth.all.mb58.gz 3.20MB Kongsberg multibeam vendor format
0507_20090902_144057_Langseth.all.mb58.gz 3.25MB Kongsberg multibeam vendor format
0508_20090902_151056_Langseth.all.mb58.gz 3.20MB Kongsberg multibeam vendor format
0509_20090902_154055_Langseth.all.mb58.gz 3.17MB Kongsberg multibeam vendor format
0510_20090902_161045_Langseth.all.mb58.gz 3.36MB Kongsberg multibeam vendor format
0511_20090902_164045_Langseth.all.mb58.gz 3.33MB Kongsberg multibeam vendor format
0512_20090902_171050_Langseth.all.mb58.gz 2.93MB Kongsberg multibeam vendor format
0513_20090902_174056_Langseth.all.mb58.gz 3.09MB Kongsberg multibeam vendor format
0514_20090902_181057_Langseth.all.mb58.gz 3.12MB Kongsberg multibeam vendor format
0515_20090902_184059_Langseth.all.mb58.gz 3.38MB Kongsberg multibeam vendor format
0516_20090902_191105_Langseth.all.mb58.gz 3.49MB Kongsberg multibeam vendor format
0517_20090902_194057_Langseth.all.mb58.gz 3.71MB Kongsberg multibeam vendor format
0518_20090902_201051_Langseth.all.mb58.gz 3.03MB Kongsberg multibeam vendor format
0519_20090902_204055_Langseth.all.mb58.gz 3.10MB Kongsberg multibeam vendor format
0520_20090902_211059_Langseth.all.mb58.gz 2.86MB Kongsberg multibeam vendor format
0522_20090902_214409_Langseth.all.mb58.gz 24.4KB Kongsberg multibeam vendor format
0523_20090902_215020_Langseth.all.mb58.gz 3.14MB Kongsberg multibeam vendor format
0524_20090902_222006_Langseth.all.mb58.gz 3.18MB Kongsberg multibeam vendor format
0525_20090902_225002_Langseth.all.mb58.gz 3.27MB Kongsberg multibeam vendor format
0526_20090902_232011_Langseth.all.mb58.gz 3.33MB Kongsberg multibeam vendor format
0527_20090902_235012_Langseth.all.mb58.gz 3.38MB Kongsberg multibeam vendor format
0528_20090903_002009_Langseth.all.mb58.gz 3.31MB Kongsberg multibeam vendor format
0529_20090903_005012_Langseth.all.mb58.gz 3.25MB Kongsberg multibeam vendor format
0530_20090903_012006_Langseth.all.mb58.gz 3.34MB Kongsberg multibeam vendor format
0531_20090903_015019_Langseth.all.mb58.gz 3.18MB Kongsberg multibeam vendor format
0532_20090903_022008_Langseth.all.mb58.gz 3.17MB Kongsberg multibeam vendor format
0533_20090903_025007_Langseth.all.mb58.gz 3.12MB Kongsberg multibeam vendor format
0534_20090903_032007_Langseth.all.mb58.gz 3.18MB Kongsberg multibeam vendor format
0535_20090903_035012_Langseth.all.mb58.gz 3.31MB Kongsberg multibeam vendor format
0536_20090903_042009_Langseth.all.mb58.gz 3.82MB Kongsberg multibeam vendor format
0537_20090903_045015_Langseth.all.mb58.gz 3.65MB Kongsberg multibeam vendor format
0538_20090903_052012_Langseth.all.mb58.gz 3.48MB Kongsberg multibeam vendor format
0539_20090903_055011_Langseth.all.mb58.gz 3.45MB Kongsberg multibeam vendor format
0540_20090903_062006_Langseth.all.mb58.gz 3.21MB Kongsberg multibeam vendor format
0541_20090903_065016_Langseth.all.mb58.gz 3.21MB Kongsberg multibeam vendor format
0542_20090903_072000_Langseth.all.mb58.gz 3.35MB Kongsberg multibeam vendor format
0543_20090903_075012_Langseth.all.mb58.gz 3.67MB Kongsberg multibeam vendor format
0544_20090903_082004_Langseth.all.mb58.gz 3.58MB Kongsberg multibeam vendor format
0545_20090903_085014_Langseth.all.mb58.gz 3.42MB Kongsberg multibeam vendor format
0546_20090903_092004_Langseth.all.mb58.gz 3.53MB Kongsberg multibeam vendor format
0547_20090903_095001_Langseth.all.mb58.gz 3.69MB Kongsberg multibeam vendor format
0548_20090903_101958_Langseth.all.mb58.gz 3.51MB Kongsberg multibeam vendor format
0549_20090903_105011_Langseth.all.mb58.gz 3.44MB Kongsberg multibeam vendor format
0550_20090903_112008_Langseth.all.mb58.gz 3.62MB Kongsberg multibeam vendor format
0551_20090903_115003_Langseth.all.mb58.gz 3.89MB Kongsberg multibeam vendor format
0552_20090903_122016_Langseth.all.mb58.gz 3.33MB Kongsberg multibeam vendor format
0553_20090903_125005_Langseth.all.mb58.gz 3.20MB Kongsberg multibeam vendor format
0554_20090903_132016_Langseth.all.mb58.gz 3.18MB Kongsberg multibeam vendor format
0555_20090903_135001_Langseth.all.mb58.gz 3.21MB Kongsberg multibeam vendor format
0556_20090903_142011_Langseth.all.mb58.gz 3.13MB Kongsberg multibeam vendor format
0557_20090903_144959_Langseth.all.mb58.gz 3.35MB Kongsberg multibeam vendor format
0558_20090903_152007_Langseth.all.mb58.gz 3.39MB Kongsberg multibeam vendor format
0559_20090903_154958_Langseth.all.mb58.gz 3.47MB Kongsberg multibeam vendor format
0560_20090903_162010_Langseth.all.mb58.gz 3.52MB Kongsberg multibeam vendor format
0561_20090903_165018_Langseth.all.mb58.gz 3.31MB Kongsberg multibeam vendor format
0562_20090903_172000_Langseth.all.mb58.gz 3.30MB Kongsberg multibeam vendor format
0563_20090903_175009_Langseth.all.mb58.gz 3.32MB Kongsberg multibeam vendor format
0564_20090903_181958_Langseth.all.mb58.gz 3.33MB Kongsberg multibeam vendor format
0565_20090903_185001_Langseth.all.mb58.gz 3.23MB Kongsberg multibeam vendor format
0566_20090903_192017_Langseth.all.mb58.gz 3.34MB Kongsberg multibeam vendor format
0567_20090903_195014_Langseth.all.mb58.gz 3.23MB Kongsberg multibeam vendor format
0568_20090903_202002_Langseth.all.mb58.gz 3.23MB Kongsberg multibeam vendor format
0569_20090903_205003_Langseth.all.mb58.gz 3.10MB Kongsberg multibeam vendor format
0570_20090903_212001_Langseth.all.mb58.gz 3.14MB Kongsberg multibeam vendor format
0571_20090903_215001_Langseth.all.mb58.gz 3.30MB Kongsberg multibeam vendor format
0572_20090903_222012_Langseth.all.mb58.gz 3.53MB Kongsberg multibeam vendor format
0573_20090903_225001_Langseth.all.mb58.gz 3.35MB Kongsberg multibeam vendor format
0574_20090903_232015_Langseth.all.mb58.gz 3.39MB Kongsberg multibeam vendor format
0575_20090903_235009_Langseth.all.mb58.gz 3.18MB Kongsberg multibeam vendor format
0576_20090904_001959_Langseth.all.mb58.gz 3.15MB Kongsberg multibeam vendor format
0577_20090904_005017_Langseth.all.mb58.gz 3.12MB Kongsberg multibeam vendor format
0578_20090904_012000_Langseth.all.mb58.gz 3.27MB Kongsberg multibeam vendor format
0579_20090904_015018_Langseth.all.mb58.gz 3.07MB Kongsberg multibeam vendor format
0580_20090904_022009_Langseth.all.mb58.gz 3.19MB Kongsberg multibeam vendor format
0581_20090904_025009_Langseth.all.mb58.gz 3.87MB Kongsberg multibeam vendor format
0582_20090904_032006_Langseth.all.mb58.gz 3.93MB Kongsberg multibeam vendor format
0583_20090904_035007_Langseth.all.mb58.gz 4.19MB Kongsberg multibeam vendor format
0584_20090904_042002_Langseth.all.mb58.gz 4.17MB Kongsberg multibeam vendor format
0585_20090904_044957_Langseth.all.mb58.gz 4.38MB Kongsberg multibeam vendor format
0586_20090904_052001_Langseth.all.mb58.gz 4.09MB Kongsberg multibeam vendor format
0587_20090904_054957_Langseth.all.mb58.gz 4.43MB Kongsberg multibeam vendor format
0588_20090904_062005_Langseth.all.mb58.gz 3.96MB Kongsberg multibeam vendor format
0589_20090904_064959_Langseth.all.mb58.gz 4.37MB Kongsberg multibeam vendor format
0590_20090904_071959_Langseth.all.mb58.gz 4.17MB Kongsberg multibeam vendor format
0591_20090904_075010_Langseth.all.mb58.gz 3.76MB Kongsberg multibeam vendor format
0592_20090904_082004_Langseth.all.mb58.gz 3.77MB Kongsberg multibeam vendor format
0593_20090904_085012_Langseth.all.mb58.gz 3.56MB Kongsberg multibeam vendor format
0594_20090904_092011_Langseth.all.mb58.gz 3.50MB Kongsberg multibeam vendor format
0595_20090904_095003_Langseth.all.mb58.gz 3.49MB Kongsberg multibeam vendor format
0596_20090904_102004_Langseth.all.mb58.gz 3.33MB Kongsberg multibeam vendor format
0597_20090904_105000_Langseth.all.mb58.gz 3.35MB Kongsberg multibeam vendor format
0598_20090904_112003_Langseth.all.mb58.gz 3.48MB Kongsberg multibeam vendor format
0599_20090904_115009_Langseth.all.mb58.gz 3.78MB Kongsberg multibeam vendor format
0600_20090904_121956_Langseth.all.mb58.gz 3.78MB Kongsberg multibeam vendor format
0601_20090904_125009_Langseth.all.mb58.gz 3.37MB Kongsberg multibeam vendor format
0602_20090904_132009_Langseth.all.mb58.gz 3.32MB Kongsberg multibeam vendor format
0603_20090904_135012_Langseth.all.mb58.gz 3.37MB Kongsberg multibeam vendor format
0604_20090904_142006_Langseth.all.mb58.gz 3.29MB Kongsberg multibeam vendor format
0605_20090904_145001_Langseth.all.mb58.gz 3.38MB Kongsberg multibeam vendor format
0606_20090904_151959_Langseth.all.mb58.gz 3.65MB Kongsberg multibeam vendor format
0607_20090904_155001_Langseth.all.mb58.gz 3.93MB Kongsberg multibeam vendor format
0608_20090904_162007_Langseth.all.mb58.gz 3.91MB Kongsberg multibeam vendor format
0609_20090904_165000_Langseth.all.mb58.gz 3.72MB Kongsberg multibeam vendor format
0610_20090904_172006_Langseth.all.mb58.gz 3.99MB Kongsberg multibeam vendor format
0611_20090904_175007_Langseth.all.mb58.gz 3.89MB Kongsberg multibeam vendor format
0612_20090904_182000_Langseth.all.mb58.gz 3.82MB Kongsberg multibeam vendor format
0613_20090904_185000_Langseth.all.mb58.gz 3.72MB Kongsberg multibeam vendor format
0614_20090904_192006_Langseth.all.mb58.gz 3.52MB Kongsberg multibeam vendor format
0615_20090904_195005_Langseth.all.mb58.gz 3.57MB Kongsberg multibeam vendor format
0616_20090904_202017_Langseth.all.mb58.gz 3.54MB Kongsberg multibeam vendor format
0617_20090904_205000_Langseth.all.mb58.gz 3.88MB Kongsberg multibeam vendor format
0618_20090904_212013_Langseth.all.mb58.gz 3.83MB Kongsberg multibeam vendor format
0619_20090904_215001_Langseth.all.mb58.gz 3.79MB Kongsberg multibeam vendor format
0620_20090904_222007_Langseth.all.mb58.gz 3.81MB Kongsberg multibeam vendor format
0621_20090904_224956_Langseth.all.mb58.gz 3.76MB Kongsberg multibeam vendor format
0622_20090904_231956_Langseth.all.mb58.gz 4.19MB Kongsberg multibeam vendor format
0623_20090904_235009_Langseth.all.mb58.gz 3.86MB Kongsberg multibeam vendor format
0624_20090905_002005_Langseth.all.mb58.gz 3.93MB Kongsberg multibeam vendor format
0625_20090905_005008_Langseth.all.mb58.gz 3.79MB Kongsberg multibeam vendor format
0626_20090905_012004_Langseth.all.mb58.gz 3.57MB Kongsberg multibeam vendor format
0627_20090905_015008_Langseth.all.mb58.gz 3.48MB Kongsberg multibeam vendor format
0628_20090905_021959_Langseth.all.mb58.gz 3.39MB Kongsberg multibeam vendor format
0629_20090905_025015_Langseth.all.mb58.gz 3.25MB Kongsberg multibeam vendor format
0630_20090905_032000_Langseth.all.mb58.gz 3.69MB Kongsberg multibeam vendor format
0631_20090905_035001_Langseth.all.mb58.gz 3.53MB Kongsberg multibeam vendor format
0632_20090905_041959_Langseth.all.mb58.gz 3.70MB Kongsberg multibeam vendor format
0633_20090905_044956_Langseth.all.mb58.gz 3.85MB Kongsberg multibeam vendor format
0634_20090905_052005_Langseth.all.mb58.gz 3.47MB Kongsberg multibeam vendor format
0635_20090905_055000_Langseth.all.mb58.gz 3.50MB Kongsberg multibeam vendor format
0636_20090905_061955_Langseth.all.mb58.gz 3.57MB Kongsberg multibeam vendor format
0637_20090905_065012_Langseth.all.mb58.gz 3.52MB Kongsberg multibeam vendor format
0638_20090905_072009_Langseth.all.mb58.gz 3.54MB Kongsberg multibeam vendor format
0639_20090905_075007_Langseth.all.mb58.gz 3.64MB Kongsberg multibeam vendor format
0640_20090905_082003_Langseth.all.mb58.gz 3.63MB Kongsberg multibeam vendor format
0641_20090905_084958_Langseth.all.mb58.gz 3.53MB Kongsberg multibeam vendor format
0642_20090905_092001_Langseth.all.mb58.gz 3.49MB Kongsberg multibeam vendor format
0643_20090905_094958_Langseth.all.mb58.gz 3.32MB Kongsberg multibeam vendor format
0644_20090905_102003_Langseth.all.mb58.gz 3.70MB Kongsberg multibeam vendor format
0645_20090905_105011_Langseth.all.mb58.gz 3.65MB Kongsberg multibeam vendor format
0646_20090905_111955_Langseth.all.mb58.gz 4.12MB Kongsberg multibeam vendor format
0647_20090905_114956_Langseth.all.mb58.gz 4.23MB Kongsberg multibeam vendor format
0648_20090905_122010_Langseth.all.mb58.gz 3.34MB Kongsberg multibeam vendor format
0649_20090905_125014_Langseth.all.mb58.gz 3.66MB Kongsberg multibeam vendor format
0650_20090905_132000_Langseth.all.mb58.gz 3.46MB Kongsberg multibeam vendor format
0651_20090905_134957_Langseth.all.mb58.gz 3.65MB Kongsberg multibeam vendor format
0652_20090905_142000_Langseth.all.mb58.gz 4.00MB Kongsberg multibeam vendor format
0653_20090905_145007_Langseth.all.mb58.gz 3.58MB Kongsberg multibeam vendor format
0654_20090905_152011_Langseth.all.mb58.gz 3.64MB Kongsberg multibeam vendor format
0655_20090905_155013_Langseth.all.mb58.gz 3.79MB Kongsberg multibeam vendor format
0656_20090905_161956_Langseth.all.mb58.gz 3.96MB Kongsberg multibeam vendor format
0657_20090905_165001_Langseth.all.mb58.gz 3.43MB Kongsberg multibeam vendor format
0658_20090905_172002_Langseth.all.mb58.gz 3.30MB Kongsberg multibeam vendor format
0659_20090905_175009_Langseth.all.mb58.gz 3.36MB Kongsberg multibeam vendor format
0660_20090905_182003_Langseth.all.mb58.gz 3.94MB Kongsberg multibeam vendor format
0661_20090905_185002_Langseth.all.mb58.gz 3.78MB Kongsberg multibeam vendor format
0662_20090905_191959_Langseth.all.mb58.gz 3.70MB Kongsberg multibeam vendor format
0663_20090905_195001_Langseth.all.mb58.gz 3.35MB Kongsberg multibeam vendor format
0664_20090905_201959_Langseth.all.mb58.gz 3.77MB Kongsberg multibeam vendor format
0665_20090905_205004_Langseth.all.mb58.gz 3.27MB Kongsberg multibeam vendor format
0666_20090905_212010_Langseth.all.mb58.gz 3.26MB Kongsberg multibeam vendor format
0667_20090905_215002_Langseth.all.mb58.gz 3.34MB Kongsberg multibeam vendor format
0668_20090905_221955_Langseth.all.mb58.gz 3.44MB Kongsberg multibeam vendor format
0669_20090905_225001_Langseth.all.mb58.gz 3.54MB Kongsberg multibeam vendor format
0670_20090905_232010_Langseth.all.mb58.gz 3.63MB Kongsberg multibeam vendor format
0671_20090905_235004_Langseth.all.mb58.gz 3.65MB Kongsberg multibeam vendor format
0672_20090906_002000_Langseth.all.mb58.gz 3.77MB Kongsberg multibeam vendor format
0673_20090906_004957_Langseth.all.mb58.gz 3.70MB Kongsberg multibeam vendor format
0674_20090906_012004_Langseth.all.mb58.gz 3.92MB Kongsberg multibeam vendor format
0675_20090906_014954_Langseth.all.mb58.gz 3.80MB Kongsberg multibeam vendor format
0676_20090906_021958_Langseth.all.mb58.gz 3.86MB Kongsberg multibeam vendor format
0677_20090906_025006_Langseth.all.mb58.gz 3.60MB Kongsberg multibeam vendor format
0678_20090906_031957_Langseth.all.mb58.gz 3.68MB Kongsberg multibeam vendor format
0679_20090906_035006_Langseth.all.mb58.gz 4.10MB Kongsberg multibeam vendor format
0680_20090906_041957_Langseth.all.mb58.gz 3.57MB Kongsberg multibeam vendor format
0681_20090906_045013_Langseth.all.mb58.gz 3.44MB Kongsberg multibeam vendor format
0682_20090906_052012_Langseth.all.mb58.gz 3.32MB Kongsberg multibeam vendor format
0683_20090906_055003_Langseth.all.mb58.gz 3.57MB Kongsberg multibeam vendor format
0684_20090906_062006_Langseth.all.mb58.gz 3.56MB Kongsberg multibeam vendor format
0685_20090906_065005_Langseth.all.mb58.gz 3.58MB Kongsberg multibeam vendor format
0686_20090906_072008_Langseth.all.mb58.gz 3.52MB Kongsberg multibeam vendor format
0687_20090906_074955_Langseth.all.mb58.gz 3.50MB Kongsberg multibeam vendor format
0688_20090906_082008_Langseth.all.mb58.gz 3.41MB Kongsberg multibeam vendor format
0689_20090906_084955_Langseth.all.mb58.gz 3.48MB Kongsberg multibeam vendor format
0690_20090906_092009_Langseth.all.mb58.gz 3.59MB Kongsberg multibeam vendor format
0691_20090906_095009_Langseth.all.mb58.gz 3.43MB Kongsberg multibeam vendor format
0692_20090906_101953_Langseth.all.mb58.gz 3.63MB Kongsberg multibeam vendor format
0693_20090906_105002_Langseth.all.mb58.gz 3.72MB Kongsberg multibeam vendor format
0694_20090906_111956_Langseth.all.mb58.gz 3.48MB Kongsberg multibeam vendor format
0695_20090906_115014_Langseth.all.mb58.gz 3.77MB Kongsberg multibeam vendor format
0696_20090906_122005_Langseth.all.mb58.gz 3.69MB Kongsberg multibeam vendor format
0697_20090906_125001_Langseth.all.mb58.gz 3.38MB Kongsberg multibeam vendor format
0698_20090906_132003_Langseth.all.mb58.gz 3.34MB Kongsberg multibeam vendor format
0699_20090906_135002_Langseth.all.mb58.gz 3.41MB Kongsberg multibeam vendor format
0700_20090906_142011_Langseth.all.mb58.gz 3.45MB Kongsberg multibeam vendor format
0701_20090906_144957_Langseth.all.mb58.gz 3.58MB Kongsberg multibeam vendor format
0702_20090906_152005_Langseth.all.mb58.gz 3.65MB Kongsberg multibeam vendor format
0703_20090906_154957_Langseth.all.mb58.gz 3.74MB Kongsberg multibeam vendor format
0704_20090906_162006_Langseth.all.mb58.gz 3.73MB Kongsberg multibeam vendor format
0705_20090906_164959_Langseth.all.mb58.gz 4.00MB Kongsberg multibeam vendor format
0706_20090906_172001_Langseth.all.mb58.gz 3.80MB Kongsberg multibeam vendor format
0707_20090906_174954_Langseth.all.mb58.gz 3.89MB Kongsberg multibeam vendor format
0708_20090906_181958_Langseth.all.mb58.gz 3.94MB Kongsberg multibeam vendor format
0709_20090906_184957_Langseth.all.mb58.gz 3.77MB Kongsberg multibeam vendor format
0710_20090906_192001_Langseth.all.mb58.gz 3.95MB Kongsberg multibeam vendor format
0711_20090906_195002_Langseth.all.mb58.gz 3.64MB Kongsberg multibeam vendor format
0712_20090906_202006_Langseth.all.mb58.gz 3.49MB Kongsberg multibeam vendor format
0713_20090906_205011_Langseth.all.mb58.gz 3.48MB Kongsberg multibeam vendor format
0714_20090906_212001_Langseth.all.mb58.gz 3.82MB Kongsberg multibeam vendor format
0715_20090906_215009_Langseth.all.mb58.gz 3.52MB Kongsberg multibeam vendor format
0716_20090906_222010_Langseth.all.mb58.gz 3.51MB Kongsberg multibeam vendor format
0717_20090906_225004_Langseth.all.mb58.gz 3.72MB Kongsberg multibeam vendor format
0718_20090906_231959_Langseth.all.mb58.gz 3.65MB Kongsberg multibeam vendor format
0719_20090906_235005_Langseth.all.mb58.gz 3.60MB Kongsberg multibeam vendor format
0720_20090907_002003_Langseth.all.mb58.gz 3.80MB Kongsberg multibeam vendor format
0721_20090907_004958_Langseth.all.mb58.gz 3.85MB Kongsberg multibeam vendor format
0722_20090907_012001_Langseth.all.mb58.gz 4.10MB Kongsberg multibeam vendor format
0723_20090907_014956_Langseth.all.mb58.gz 3.59MB Kongsberg multibeam vendor format
0724_20090907_022006_Langseth.all.mb58.gz 3.35MB Kongsberg multibeam vendor format
0725_20090907_025004_Langseth.all.mb58.gz 3.75MB Kongsberg multibeam vendor format
0726_20090907_032011_Langseth.all.mb58.gz 3.53MB Kongsberg multibeam vendor format
0727_20090907_035001_Langseth.all.mb58.gz 3.51MB Kongsberg multibeam vendor format
0728_20090907_042003_Langseth.all.mb58.gz 3.52MB Kongsberg multibeam vendor format
0729_20090907_045008_Langseth.all.mb58.gz 3.64MB Kongsberg multibeam vendor format
0730_20090907_052008_Langseth.all.mb58.gz 3.65MB Kongsberg multibeam vendor format
0731_20090907_055004_Langseth.all.mb58.gz 3.68MB Kongsberg multibeam vendor format
0732_20090907_061952_Langseth.all.mb58.gz 3.76MB Kongsberg multibeam vendor format
0733_20090907_064956_Langseth.all.mb58.gz 3.71MB Kongsberg multibeam vendor format
0734_20090907_072004_Langseth.all.mb58.gz 3.63MB Kongsberg multibeam vendor format
0735_20090907_074955_Langseth.all.mb58.gz 3.96MB Kongsberg multibeam vendor format
0736_20090907_081951_Langseth.all.mb58.gz 3.50MB Kongsberg multibeam vendor format
0737_20090907_085009_Langseth.all.mb58.gz 3.61MB Kongsberg multibeam vendor format
0738_20090907_091951_Langseth.all.mb58.gz 3.83MB Kongsberg multibeam vendor format
0739_20090907_095006_Langseth.all.mb58.gz 3.66MB Kongsberg multibeam vendor format
0740_20090907_102009_Langseth.all.mb58.gz 3.44MB Kongsberg multibeam vendor format
0741_20090907_105010_Langseth.all.mb58.gz 3.44MB Kongsberg multibeam vendor format
0742_20090907_112005_Langseth.all.mb58.gz 3.61MB Kongsberg multibeam vendor format
0743_20090907_115008_Langseth.all.mb58.gz 3.71MB Kongsberg multibeam vendor format
0744_20090907_122002_Langseth.all.mb58.gz 3.62MB Kongsberg multibeam vendor format
0745_20090907_124955_Langseth.all.mb58.gz 3.52MB Kongsberg multibeam vendor format
0746_20090907_131959_Langseth.all.mb58.gz 3.72MB Kongsberg multibeam vendor format
0747_20090907_135007_Langseth.all.mb58.gz 3.55MB Kongsberg multibeam vendor format
0748_20090907_141956_Langseth.all.mb58.gz 3.51MB Kongsberg multibeam vendor format
0749_20090907_144953_Langseth.all.mb58.gz 3.79MB Kongsberg multibeam vendor format
0750_20090907_151951_Langseth.all.mb58.gz 3.63MB Kongsberg multibeam vendor format
0751_20090907_154952_Langseth.all.mb58.gz 3.84MB Kongsberg multibeam vendor format
0752_20090907_161956_Langseth.all.mb58.gz 3.73MB Kongsberg multibeam vendor format
0753_20090907_165011_Langseth.all.mb58.gz 3.57MB Kongsberg multibeam vendor format
0754_20090907_171957_Langseth.all.mb58.gz 3.59MB Kongsberg multibeam vendor format
0755_20090907_174957_Langseth.all.mb58.gz 3.53MB Kongsberg multibeam vendor format
0756_20090907_181954_Langseth.all.mb58.gz 3.39MB Kongsberg multibeam vendor format
0757_20090907_184950_Langseth.all.mb58.gz 3.80MB Kongsberg multibeam vendor format
0758_20090907_192008_Langseth.all.mb58.gz 3.79MB Kongsberg multibeam vendor format
0759_20090907_194953_Langseth.all.mb58.gz 3.73MB Kongsberg multibeam vendor format
0760_20090907_201950_Langseth.all.mb58.gz 3.84MB Kongsberg multibeam vendor format
0761_20090907_204954_Langseth.all.mb58.gz 3.60MB Kongsberg multibeam vendor format
0762_20090907_212000_Langseth.all.mb58.gz 3.21MB Kongsberg multibeam vendor format
0763_20090907_215008_Langseth.all.mb58.gz 3.36MB Kongsberg multibeam vendor format
0764_20090907_222003_Langseth.all.mb58.gz 3.35MB Kongsberg multibeam vendor format
0765_20090907_224950_Langseth.all.mb58.gz 3.43MB Kongsberg multibeam vendor format
0766_20090907_231958_Langseth.all.mb58.gz 3.15MB Kongsberg multibeam vendor format
0767_20090907_234957_Langseth.all.mb58.gz 3.36MB Kongsberg multibeam vendor format
0768_20090908_001953_Langseth.all.mb58.gz 3.85MB Kongsberg multibeam vendor format
0769_20090908_004950_Langseth.all.mb58.gz 3.97MB Kongsberg multibeam vendor format
0770_20090908_011957_Langseth.all.mb58.gz 3.64MB Kongsberg multibeam vendor format
0771_20090908_014950_Langseth.all.mb58.gz 4.09MB Kongsberg multibeam vendor format
0772_20090908_021959_Langseth.all.mb58.gz 4.22MB Kongsberg multibeam vendor format
0773_20090908_025000_Langseth.all.mb58.gz 4.13MB Kongsberg multibeam vendor format
0774_20090908_031950_Langseth.all.mb58.gz 3.91MB Kongsberg multibeam vendor format
0775_20090908_034953_Langseth.all.mb58.gz 3.32MB Kongsberg multibeam vendor format
0776_20090908_042001_Langseth.all.mb58.gz 3.93MB Kongsberg multibeam vendor format
0777_20090908_045004_Langseth.all.mb58.gz 3.87MB Kongsberg multibeam vendor format
0778_20090908_052005_Langseth.all.mb58.gz 3.92MB Kongsberg multibeam vendor format
0779_20090908_054950_Langseth.all.mb58.gz 3.98MB Kongsberg multibeam vendor format
0780_20090908_061952_Langseth.all.mb58.gz 4.08MB Kongsberg multibeam vendor format
0781_20090908_065002_Langseth.all.mb58.gz 3.75MB Kongsberg multibeam vendor format
0782_20090908_071956_Langseth.all.mb58.gz 3.95MB Kongsberg multibeam vendor format
0783_20090908_074958_Langseth.all.mb58.gz 3.77MB Kongsberg multibeam vendor format
0784_20090908_082004_Langseth.all.mb58.gz 3.81MB Kongsberg multibeam vendor format
0785_20090908_084959_Langseth.all.mb58.gz 3.90MB Kongsberg multibeam vendor format
0786_20090908_091952_Langseth.all.mb58.gz 4.00MB Kongsberg multibeam vendor format
0787_20090908_095012_Langseth.all.mb58.gz 3.94MB Kongsberg multibeam vendor format
0788_20090908_102014_Langseth.all.mb58.gz 3.94MB Kongsberg multibeam vendor format
0789_20090908_105022_Langseth.all.mb58.gz 3.74MB Kongsberg multibeam vendor format
0790_20090908_112020_Langseth.all.mb58.gz 4.02MB Kongsberg multibeam vendor format
0791_20090908_115026_Langseth.all.mb58.gz 3.81MB Kongsberg multibeam vendor format
0792_20090908_122031_Langseth.all.mb58.gz 3.95MB Kongsberg multibeam vendor format
0793_20090908_125037_Langseth.all.mb58.gz 3.88MB Kongsberg multibeam vendor format
0794_20090908_132036_Langseth.all.mb58.gz 3.72MB Kongsberg multibeam vendor format
0795_20090908_135054_Langseth.all.mb58.gz 3.71MB Kongsberg multibeam vendor format
0796_20090908_142046_Langseth.all.mb58.gz 4.02MB Kongsberg multibeam vendor format
0797_20090908_145101_Langseth.all.mb58.gz 3.99MB Kongsberg multibeam vendor format
0798_20090908_152100_Langseth.all.mb58.gz 4.00MB Kongsberg multibeam vendor format
0799_20090908_155109_Langseth.all.mb58.gz 4.03MB Kongsberg multibeam vendor format
0800_20090908_162109_Langseth.all.mb58.gz 3.28MB Kongsberg multibeam vendor format
0801_20090908_165111_Langseth.all.mb58.gz 2.99MB Kongsberg multibeam vendor format
0802_20090908_172125_Langseth.all.mb58.gz 2.94MB Kongsberg multibeam vendor format
0803_20090908_175125_Langseth.all.mb58.gz 3.44MB Kongsberg multibeam vendor format
0804_20090908_182122_Langseth.all.mb58.gz 3.83MB Kongsberg multibeam vendor format
0805_20090908_185134_Langseth.all.mb58.gz 4.05MB Kongsberg multibeam vendor format
0806_20090908_192140_Langseth.all.mb58.gz 0.62MB Kongsberg multibeam vendor format
0806_20090908_193311_Langseth.all.mb58.gz 3.96MB Kongsberg multibeam vendor format
0807_20090908_200320_Langseth.all.mb58.gz 4.36MB Kongsberg multibeam vendor format
0808_20090908_203324_Langseth.all.mb58.gz 4.46MB Kongsberg multibeam vendor format
0809_20090908_210336_Langseth.all.mb58.gz 4.33MB Kongsberg multibeam vendor format
0810_20090908_213337_Langseth.all.mb58.gz 4.23MB Kongsberg multibeam vendor format
0811_20090908_220335_Langseth.all.mb58.gz 3.68MB Kongsberg multibeam vendor format
0812_20090908_223340_Langseth.all.mb58.gz 4.05MB Kongsberg multibeam vendor format
0813_20090908_230349_Langseth.all.mb58.gz 4.32MB Kongsberg multibeam vendor format
0814_20090908_233350_Langseth.all.mb58.gz 3.52MB Kongsberg multibeam vendor format
0815_20090909_000345_Langseth.all.mb58.gz 4.18MB Kongsberg multibeam vendor format
0816_20090909_003350_Langseth.all.mb58.gz 4.28MB Kongsberg multibeam vendor format
0817_20090909_010351_Langseth.all.mb58.gz 4.69MB Kongsberg multibeam vendor format
0818_20090909_013350_Langseth.all.mb58.gz 4.40MB Kongsberg multibeam vendor format
0819_20090909_020346_Langseth.all.mb58.gz 4.31MB Kongsberg multibeam vendor format
0820_20090909_023349_Langseth.all.mb58.gz 4.42MB Kongsberg multibeam vendor format
0821_20090909_030347_Langseth.all.mb58.gz 4.34MB Kongsberg multibeam vendor format
0822_20090909_033348_Langseth.all.mb58.gz 4.14MB Kongsberg multibeam vendor format
0823_20090909_040345_Langseth.all.mb58.gz 4.13MB Kongsberg multibeam vendor format
0824_20090909_043352_Langseth.all.mb58.gz 4.35MB Kongsberg multibeam vendor format
0825_20090909_050356_Langseth.all.mb58.gz 4.05MB Kongsberg multibeam vendor format
0826_20090909_053356_Langseth.all.mb58.gz 4.25MB Kongsberg multibeam vendor format
0827_20090909_060352_Langseth.all.mb58.gz 4.17MB Kongsberg multibeam vendor format
0828_20090909_063354_Langseth.all.mb58.gz 4.14MB Kongsberg multibeam vendor format
0829_20090909_070352_Langseth.all.mb58.gz 4.02MB Kongsberg multibeam vendor format
0830_20090909_073352_Langseth.all.mb58.gz 4.00MB Kongsberg multibeam vendor format
0831_20090909_080345_Langseth.all.mb58.gz 3.94MB Kongsberg multibeam vendor format
0832_20090909_083347_Langseth.all.mb58.gz 3.94MB Kongsberg multibeam vendor format
0833_20090909_090348_Langseth.all.mb58.gz 4.00MB Kongsberg multibeam vendor format
0834_20090909_093357_Langseth.all.mb58.gz 4.01MB Kongsberg multibeam vendor format
0835_20090909_100348_Langseth.all.mb58.gz 4.09MB Kongsberg multibeam vendor format
0836_20090909_103400_Langseth.all.mb58.gz 3.90MB Kongsberg multibeam vendor format
0837_20090909_110358_Langseth.all.mb58.gz 3.76MB Kongsberg multibeam vendor format
0838_20090909_113351_Langseth.all.mb58.gz 4.13MB Kongsberg multibeam vendor format
0839_20090909_120350_Langseth.all.mb58.gz 3.90MB Kongsberg multibeam vendor format
0840_20090909_123402_Langseth.all.mb58.gz 4.15MB Kongsberg multibeam vendor format
0841_20090909_130348_Langseth.all.mb58.gz 3.96MB Kongsberg multibeam vendor format
0842_20090909_133406_Langseth.all.mb58.gz 3.52MB Kongsberg multibeam vendor format
0843_20090909_140357_Langseth.all.mb58.gz 3.62MB Kongsberg multibeam vendor format
0844_20090909_143400_Langseth.all.mb58.gz 4.24MB Kongsberg multibeam vendor format
0845_20090909_150354_Langseth.all.mb58.gz 4.15MB Kongsberg multibeam vendor format
0846_20090909_153357_Langseth.all.mb58.gz 4.10MB Kongsberg multibeam vendor format
0847_20090909_160352_Langseth.all.mb58.gz 3.63MB Kongsberg multibeam vendor format
0848_20090909_163348_Langseth.all.mb58.gz 3.67MB Kongsberg multibeam vendor format
0849_20090909_170356_Langseth.all.mb58.gz 3.71MB Kongsberg multibeam vendor format
0850_20090909_173350_Langseth.all.mb58.gz 3.73MB Kongsberg multibeam vendor format
0851_20090909_180347_Langseth.all.mb58.gz 4.08MB Kongsberg multibeam vendor format
0852_20090909_183350_Langseth.all.mb58.gz 4.05MB Kongsberg multibeam vendor format
0853_20090909_190345_Langseth.all.mb58.gz 3.95MB Kongsberg multibeam vendor format
0854_20090909_193354_Langseth.all.mb58.gz 3.93MB Kongsberg multibeam vendor format
0855_20090909_200356_Langseth.all.mb58.gz 3.26MB Kongsberg multibeam vendor format
0856_20090909_203346_Langseth.all.mb58.gz 3.28MB Kongsberg multibeam vendor format
0857_20090909_210343_Langseth.all.mb58.gz 3.60MB Kongsberg multibeam vendor format
0858_20090909_213354_Langseth.all.mb58.gz 4.30MB Kongsberg multibeam vendor format
0859_20090909_220352_Langseth.all.mb58.gz 4.36MB Kongsberg multibeam vendor format
0860_20090909_223357_Langseth.all.mb58.gz 3.43MB Kongsberg multibeam vendor format
0861_20090909_230345_Langseth.all.mb58.gz 3.49MB Kongsberg multibeam vendor format
0862_20090909_233349_Langseth.all.mb58.gz 3.68MB Kongsberg multibeam vendor format
0863_20090910_000349_Langseth.all.mb58.gz 3.35MB Kongsberg multibeam vendor format
0864_20090910_003345_Langseth.all.mb58.gz 3.35MB Kongsberg multibeam vendor format
0865_20090910_010350_Langseth.all.mb58.gz 4.34MB Kongsberg multibeam vendor format
0866_20090910_013353_Langseth.all.mb58.gz 4.36MB Kongsberg multibeam vendor format
0867_20090910_020354_Langseth.all.mb58.gz 4.02MB Kongsberg multibeam vendor format
0868_20090910_023344_Langseth.all.mb58.gz 3.91MB Kongsberg multibeam vendor format
0869_20090910_030343_Langseth.all.mb58.gz 4.25MB Kongsberg multibeam vendor format
0870_20090910_033347_Langseth.all.mb58.gz 4.37MB Kongsberg multibeam vendor format
0871_20090910_040351_Langseth.all.mb58.gz 4.22MB Kongsberg multibeam vendor format
0872_20090910_043348_Langseth.all.mb58.gz 3.76MB Kongsberg multibeam vendor format
0873_20090910_050356_Langseth.all.mb58.gz 3.58MB Kongsberg multibeam vendor format
0874_20090910_053356_Langseth.all.mb58.gz 3.58MB Kongsberg multibeam vendor format
0875_20090910_060353_Langseth.all.mb58.gz 3.49MB Kongsberg multibeam vendor format
0876_20090910_063353_Langseth.all.mb58.gz 3.70MB Kongsberg multibeam vendor format
0877_20090910_070344_Langseth.all.mb58.gz 3.66MB Kongsberg multibeam vendor format
0878_20090910_073359_Langseth.all.mb58.gz 3.38MB Kongsberg multibeam vendor format
0879_20090910_080345_Langseth.all.mb58.gz 3.43MB Kongsberg multibeam vendor format
0880_20090910_083344_Langseth.all.mb58.gz 3.59MB Kongsberg multibeam vendor format
0881_20090910_090349_Langseth.all.mb58.gz 3.52MB Kongsberg multibeam vendor format
0882_20090910_093357_Langseth.all.mb58.gz 3.56MB Kongsberg multibeam vendor format
0883_20090910_100357_Langseth.all.mb58.gz 3.57MB Kongsberg multibeam vendor format
0884_20090910_103351_Langseth.all.mb58.gz 3.66MB Kongsberg multibeam vendor format
0885_20090910_110356_Langseth.all.mb58.gz 4.34MB Kongsberg multibeam vendor format
0886_20090910_113347_Langseth.all.mb58.gz 4.30MB Kongsberg multibeam vendor format
0887_20090910_120354_Langseth.all.mb58.gz 3.95MB Kongsberg multibeam vendor format
0888_20090910_123348_Langseth.all.mb58.gz 3.92MB Kongsberg multibeam vendor format
0889_20090910_130345_Langseth.all.mb58.gz 3.45MB Kongsberg multibeam vendor format
0890_20090910_133402_Langseth.all.mb58.gz 3.61MB Kongsberg multibeam vendor format
0891_20090910_140354_Langseth.all.mb58.gz 4.16MB Kongsberg multibeam vendor format
0892_20090910_143355_Langseth.all.mb58.gz 3.94MB Kongsberg multibeam vendor format
0893_20090910_150342_Langseth.all.mb58.gz 3.90MB Kongsberg multibeam vendor format
0894_20090910_153344_Langseth.all.mb58.gz 4.04MB Kongsberg multibeam vendor format
0895_20090910_160356_Langseth.all.mb58.gz 3.97MB Kongsberg multibeam vendor format
0896_20090910_163349_Langseth.all.mb58.gz 3.84MB Kongsberg multibeam vendor format
0897_20090910_170349_Langseth.all.mb58.gz 3.58MB Kongsberg multibeam vendor format
0898_20090910_173404_Langseth.all.mb58.gz 3.28MB Kongsberg multibeam vendor format
0899_20090910_180346_Langseth.all.mb58.gz 3.30MB Kongsberg multibeam vendor format
0900_20090910_183352_Langseth.all.mb58.gz 3.24MB Kongsberg multibeam vendor format
0901_20090910_190404_Langseth.all.mb58.gz 3.68MB Kongsberg multibeam vendor format
0902_20090910_193351_Langseth.all.mb58.gz 3.59MB Kongsberg multibeam vendor format
0903_20090910_200345_Langseth.all.mb58.gz 3.48MB Kongsberg multibeam vendor format
0904_20090910_203356_Langseth.all.mb58.gz 3.49MB Kongsberg multibeam vendor format
0905_20090910_210342_Langseth.all.mb58.gz 3.58MB Kongsberg multibeam vendor format
0906_20090910_213353_Langseth.all.mb58.gz 3.95MB Kongsberg multibeam vendor format
0907_20090910_220354_Langseth.all.mb58.gz 3.78MB Kongsberg multibeam vendor format
0908_20090910_223352_Langseth.all.mb58.gz 4.12MB Kongsberg multibeam vendor format
0909_20090910_230348_Langseth.all.mb58.gz 3.81MB Kongsberg multibeam vendor format
0910_20090910_233346_Langseth.all.mb58.gz 4.02MB Kongsberg multibeam vendor format
0911_20090911_000352_Langseth.all.mb58.gz 3.88MB Kongsberg multibeam vendor format
0912_20090911_003345_Langseth.all.mb58.gz 3.44MB Kongsberg multibeam vendor format
0913_20090911_010349_Langseth.all.mb58.gz 3.13MB Kongsberg multibeam vendor format
0914_20090911_013349_Langseth.all.mb58.gz 3.32MB Kongsberg multibeam vendor format
0915_20090911_020355_Langseth.all.mb58.gz 3.46MB Kongsberg multibeam vendor format
0916_20090911_023342_Langseth.all.mb58.gz 3.37MB Kongsberg multibeam vendor format
0917_20090911_030356_Langseth.all.mb58.gz 3.38MB Kongsberg multibeam vendor format
0918_20090911_033342_Langseth.all.mb58.gz 3.40MB Kongsberg multibeam vendor format
0919_20090911_040349_Langseth.all.mb58.gz 3.41MB Kongsberg multibeam vendor format
0920_20090911_043354_Langseth.all.mb58.gz 3.45MB Kongsberg multibeam vendor format
0921_20090911_050352_Langseth.all.mb58.gz 3.53MB Kongsberg multibeam vendor format
0922_20090911_053352_Langseth.all.mb58.gz 3.46MB Kongsberg multibeam vendor format
0923_20090911_060341_Langseth.all.mb58.gz 3.45MB Kongsberg multibeam vendor format
0924_20090911_063342_Langseth.all.mb58.gz 3.31MB Kongsberg multibeam vendor format
0925_20090911_070348_Langseth.all.mb58.gz 3.29MB Kongsberg multibeam vendor format
0926_20090911_073344_Langseth.all.mb58.gz 3.37MB Kongsberg multibeam vendor format
0927_20090911_080359_Langseth.all.mb58.gz 3.32MB Kongsberg multibeam vendor format
0928_20090911_083350_Langseth.all.mb58.gz 3.56MB Kongsberg multibeam vendor format
0929_20090911_090348_Langseth.all.mb58.gz 3.75MB Kongsberg multibeam vendor format
0930_20090911_093352_Langseth.all.mb58.gz 3.77MB Kongsberg multibeam vendor format
0931_20090911_100349_Langseth.all.mb58.gz 3.90MB Kongsberg multibeam vendor format
0932_20090911_103349_Langseth.all.mb58.gz 3.89MB Kongsberg multibeam vendor format
0933_20090911_110341_Langseth.all.mb58.gz 4.12MB Kongsberg multibeam vendor format
0934_20090911_113352_Langseth.all.mb58.gz 4.07MB Kongsberg multibeam vendor format
0935_20090911_120342_Langseth.all.mb58.gz 4.30MB Kongsberg multibeam vendor format
0936_20090911_123349_Langseth.all.mb58.gz 4.15MB Kongsberg multibeam vendor format
0937_20090911_130351_Langseth.all.mb58.gz 3.73MB Kongsberg multibeam vendor format
0938_20090911_133348_Langseth.all.mb58.gz 435.5KB Kongsberg multibeam vendor format
0939_20090911_145133_Langseth.all.mb58.gz 3.60MB Kongsberg multibeam vendor format
0940_20090911_152146_Langseth.all.mb58.gz 3.76MB Kongsberg multibeam vendor format
0941_20090911_155139_Langseth.all.mb58.gz 0.66MB Kongsberg multibeam vendor format
0942_20090911_171336_Langseth.all.mb58.gz 3.79MB Kongsberg multibeam vendor format
0943_20090911_174341_Langseth.all.mb58.gz 0.52MB Kongsberg multibeam vendor format
0944_20090911_203629_Langseth.all.mb58.gz 2.18MB Kongsberg multibeam vendor format
0945_20090911_220108_Langseth.all.mb58.gz 4.05MB Kongsberg multibeam vendor format
0946_20090911_223100_Langseth.all.mb58.gz 415.7KB Kongsberg multibeam vendor format
0947_20090911_234828_Langseth.all.mb58.gz 3.98MB Kongsberg multibeam vendor format
0948_20090912_001824_Langseth.all.mb58.gz 0.85MB Kongsberg multibeam vendor format
0949_20090912_014933_Langseth.all.mb58.gz 4.19MB Kongsberg multibeam vendor format
0950_20090912_021945_Langseth.all.mb58.gz 0.63MB Kongsberg multibeam vendor format
0951_20090912_033245_Langseth.all.mb58.gz 4.02MB Kongsberg multibeam vendor format
0952_20090912_040253_Langseth.all.mb58.gz 307.3KB Kongsberg multibeam vendor format
0953_20090912_052904_Langseth.all.mb58.gz 1.96MB Kongsberg multibeam vendor format
0954_20090912_065440_Langseth.all.mb58.gz 2.88MB Kongsberg multibeam vendor format
0955_20090912_090226_Langseth.all.mb58.gz 3.25MB Kongsberg multibeam vendor format
0956_20090912_102852_Langseth.all.mb58.gz 2.92MB Kongsberg multibeam vendor format
0957_20090912_120100_Langseth.all.mb58.gz 3.75MB Kongsberg multibeam vendor format
0958_20090912_123115_Langseth.all.mb58.gz 2.88MB Kongsberg multibeam vendor format
0959_20090912_145325_Langseth.all.mb58.gz 1.74MB Kongsberg multibeam vendor format
0960_20090912_180851_Langseth.all.mb58.gz 3.70MB Kongsberg multibeam vendor format
0961_20090912_183846_Langseth.all.mb58.gz 0.88MB Kongsberg multibeam vendor format
0962_20090912_195106_Langseth.all.mb58.gz 3.89MB Kongsberg multibeam vendor format
0963_20090912_202106_Langseth.all.mb58.gz 219.9KB Kongsberg multibeam vendor format
0964_20090912_220138_Langseth.all.mb58.gz 3.47MB Kongsberg multibeam vendor format
0965_20090912_223126_Langseth.all.mb58.gz 0.52MB Kongsberg multibeam vendor format
0966_20090912_234326_Langseth.all.mb58.gz 3.80MB Kongsberg multibeam vendor format
0967_20090913_001321_Langseth.all.mb58.gz 3.49MB Kongsberg multibeam vendor format
0968_20090913_004313_Langseth.all.mb58.gz 0.77MB Kongsberg multibeam vendor format
0969_20090913_015318_Langseth.all.mb58.gz 4.04MB Kongsberg multibeam vendor format
0970_20090913_022313_Langseth.all.mb58.gz 2.05MB Kongsberg multibeam vendor format
0971_20090913_035645_Langseth.all.mb58.gz 4.02MB Kongsberg multibeam vendor format
0972_20090913_042639_Langseth.all.mb58.gz 1.70MB Kongsberg multibeam vendor format
0973_20090913_055028_Langseth.all.mb58.gz 3.62MB Kongsberg multibeam vendor format
0974_20090913_062018_Langseth.all.mb58.gz 0.98MB Kongsberg multibeam vendor format
0975_20090913_074726_Langseth.all.mb58.gz 3.12MB Kongsberg multibeam vendor format
0976_20090913_093509_Langseth.all.mb58.gz 1.57MB Kongsberg multibeam vendor format
0977_20090913_104710_Langseth.all.mb58.gz 3.62MB Kongsberg multibeam vendor format
0978_20090913_111712_Langseth.all.mb58.gz 1.81MB Kongsberg multibeam vendor format
0979_20090913_125416_Langseth.all.mb58.gz 3.70MB Kongsberg multibeam vendor format
0980_20090913_132412_Langseth.all.mb58.gz 2.85MB Kongsberg multibeam vendor format
0981_20090913_145901_Langseth.all.mb58.gz 2.34MB Kongsberg multibeam vendor format
0982_20090913_164834_Langseth.all.mb58.gz 0.57MB Kongsberg multibeam vendor format
0983_20090913_175630_Langseth.all.mb58.gz 3.11MB Kongsberg multibeam vendor format
0984_20090913_191256_Langseth.all.mb58.gz 2.53MB Kongsberg multibeam vendor format
0985_20090913_203032_Langseth.all.mb58.gz 3.44MB Kongsberg multibeam vendor format
0986_20090913_215511_Langseth.all.mb58.gz 3.46MB Kongsberg multibeam vendor format
0987_20090913_222506_Langseth.all.mb58.gz 320.3KB Kongsberg multibeam vendor format
0988_20090913_232535_Langseth.all.mb58.gz 3.65MB Kongsberg multibeam vendor format
0989_20090913_235536_Langseth.all.mb58.gz 0.60MB Kongsberg multibeam vendor format
0990_20090914_010512_Langseth.all.mb58.gz 3.37MB Kongsberg multibeam vendor format
0991_20090914_013511_Langseth.all.mb58.gz 2.02MB Kongsberg multibeam vendor format
0992_20090914_025638_Langseth.all.mb58.gz 3.36MB Kongsberg multibeam vendor format
0993_20090914_032631_Langseth.all.mb58.gz 370.4KB Kongsberg multibeam vendor format
0994_20090914_043821_Langseth.all.mb58.gz 3.53MB Kongsberg multibeam vendor format
0995_20090914_050811_Langseth.all.mb58.gz 3.21MB Kongsberg multibeam vendor format
0996_20090914_063825_Langseth.all.mb58.gz 3.82MB Kongsberg multibeam vendor format
0997_20090914_070827_Langseth.all.mb58.gz 2.20MB Kongsberg multibeam vendor format
0998_20090914_082728_Langseth.all.mb58.gz 3.46MB Kongsberg multibeam vendor format
0999_20090914_085734_Langseth.all.mb58.gz 1.31MB Kongsberg multibeam vendor format
1000_20090914_100553_Langseth.all.mb58.gz 3.45MB Kongsberg multibeam vendor format
1001_20090914_103559_Langseth.all.mb58.gz 1.32MB Kongsberg multibeam vendor format
1002_20090914_153213_Langseth.all.mb58.gz 3.34MB Kongsberg multibeam vendor format
1003_20090914_160213_Langseth.all.mb58.gz 3.13MB Kongsberg multibeam vendor format
1004_20090914_174411_Langseth.all.mb58.gz 3.39MB Kongsberg multibeam vendor format
1005_20090914_192808_Langseth.all.mb58.gz 3.21MB Kongsberg multibeam vendor format
1006_20090914_195802_Langseth.all.mb58.gz 1.56MB Kongsberg multibeam vendor format
1007_20090914_212819_Langseth.all.mb58.gz 3.37MB Kongsberg multibeam vendor format
1008_20090914_215809_Langseth.all.mb58.gz 0.57MB Kongsberg multibeam vendor format
1009_20090914_231452_Langseth.all.mb58.gz 3.40MB Kongsberg multibeam vendor format
1010_20090914_234444_Langseth.all.mb58.gz 1.34MB Kongsberg multibeam vendor format
1011_20090915_010048_Langseth.all.mb58.gz 3.84MB Kongsberg multibeam vendor format
1012_20090915_013043_Langseth.all.mb58.gz 1.61MB Kongsberg multibeam vendor format
1013_20090915_030858_Langseth.all.mb58.gz 3.22MB Kongsberg multibeam vendor format
1014_20090915_033858_Langseth.all.mb58.gz 3.19MB Kongsberg multibeam vendor format
1015_20090915_040847_Langseth.all.mb58.gz 0.90MB Kongsberg multibeam vendor format
1016_20090915_051719_Langseth.all.mb58.gz 3.40MB Kongsberg multibeam vendor format
1017_20090915_054712_Langseth.all.mb58.gz 277.3KB Kongsberg multibeam vendor format
1018_20090915_065126_Langseth.all.mb58.gz 443.8KB Kongsberg multibeam vendor format
1019_20090915_075504_Langseth.all.mb58.gz 3.36MB Kongsberg multibeam vendor format
1020_20090915_082505_Langseth.all.mb58.gz 404.9KB Kongsberg multibeam vendor format
1021_20090915_102920_Langseth.all.mb58.gz 1.26MB Kongsberg multibeam vendor format
1022_20090915_131807_Langseth.all.mb58.gz 3.76MB Kongsberg multibeam vendor format
1023_20090915_134815_Langseth.all.mb58.gz 3.70MB Kongsberg multibeam vendor format
1024_20090915_141810_Langseth.all.mb58.gz 2.24MB Kongsberg multibeam vendor format
1025_20090915_154231_Langseth.all.mb58.gz 3.94MB Kongsberg multibeam vendor format
1026_20090915_161231_Langseth.all.mb58.gz 3.31MB Kongsberg multibeam vendor format
1027_20090915_173704_Langseth.all.mb58.gz 4.02MB Kongsberg multibeam vendor format
1028_20090915_180708_Langseth.all.mb58.gz 3.09MB Kongsberg multibeam vendor format
1029_20090915_194148_Langseth.all.mb58.gz 4.20MB Kongsberg multibeam vendor format
1030_20090915_201137_Langseth.all.mb58.gz 3.77MB Kongsberg multibeam vendor format
1031_20090915_215320_Langseth.all.mb58.gz 4.33MB Kongsberg multibeam vendor format
1032_20090915_222310_Langseth.all.mb58.gz 4.14MB Kongsberg multibeam vendor format
1033_20090915_225302_Langseth.all.mb58.gz 1.21MB Kongsberg multibeam vendor format
1034_20090916_003802_Langseth.all.mb58.gz 0.58MB Kongsberg multibeam vendor format
1035_20090916_004219_Langseth.all.mb58.gz 3.69MB Kongsberg multibeam vendor format
1036_20090916_011154_Langseth.all.mb58.gz 3.87MB Kongsberg multibeam vendor format
1037_20090916_014156_Langseth.all.mb58.gz 4.27MB Kongsberg multibeam vendor format
1038_20090916_021157_Langseth.all.mb58.gz 4.35MB Kongsberg multibeam vendor format
1039_20090916_024201_Langseth.all.mb58.gz 4.37MB Kongsberg multibeam vendor format
1040_20090916_031205_Langseth.all.mb58.gz 4.55MB Kongsberg multibeam vendor format
1041_20090916_034157_Langseth.all.mb58.gz 4.39MB Kongsberg multibeam vendor format
1042_20090916_041202_Langseth.all.mb58.gz 4.39MB Kongsberg multibeam vendor format
1043_20090916_044154_Langseth.all.mb58.gz 4.32MB Kongsberg multibeam vendor format
1044_20090916_051153_Langseth.all.mb58.gz 4.53MB Kongsberg multibeam vendor format
1045_20090916_054204_Langseth.all.mb58.gz 4.51MB Kongsberg multibeam vendor format
1046_20090916_061157_Langseth.all.mb58.gz 4.28MB Kongsberg multibeam vendor format
1047_20090916_064200_Langseth.all.mb58.gz 4.21MB Kongsberg multibeam vendor format
1048_20090916_071155_Langseth.all.mb58.gz 4.29MB Kongsberg multibeam vendor format
1049_20090916_074201_Langseth.all.mb58.gz 2.06MB Kongsberg multibeam vendor format
1050_20090916_093216_Langseth.all.mb58.gz 4.25MB Kongsberg multibeam vendor format
1051_20090916_100231_Langseth.all.mb58.gz 3.65MB Kongsberg multibeam vendor format
1052_20090916_103224_Langseth.all.mb58.gz 1.32MB Kongsberg multibeam vendor format
1053_20090916_114759_Langseth.all.mb58.gz 4.10MB Kongsberg multibeam vendor format
1054_20090916_121800_Langseth.all.mb58.gz 3.96MB Kongsberg multibeam vendor format
1055_20090916_124813_Langseth.all.mb58.gz 3.24MB Kongsberg multibeam vendor format
1056_20090916_142204_Langseth.all.mb58.gz 4.19MB Kongsberg multibeam vendor format
1057_20090916_145204_Langseth.all.mb58.gz 1.32MB Kongsberg multibeam vendor format
1058_20090916_162349_Langseth.all.mb58.gz 0.56MB Kongsberg multibeam vendor format
1059_20090916_184557_Langseth.all.mb58.gz 2.69MB Kongsberg multibeam vendor format
1060_20090916_200823_Langseth.all.mb58.gz 3.66MB Kongsberg multibeam vendor format
1061_20090916_203822_Langseth.all.mb58.gz 0.60MB Kongsberg multibeam vendor format
1062_20090916_214311_Langseth.all.mb58.gz 3.83MB Kongsberg multibeam vendor format
1063_20090916_221302_Langseth.all.mb58.gz 153.2KB Kongsberg multibeam vendor format
1064_20090916_231050_Langseth.all.mb58.gz 3.68MB Kongsberg multibeam vendor format
1065_20090916_234042_Langseth.all.mb58.gz 3.60MB Kongsberg multibeam vendor format
1066_20090917_001055_Langseth.all.mb58.gz 3.76MB Kongsberg multibeam vendor format
1067_20090917_004053_Langseth.all.mb58.gz 3.80MB Kongsberg multibeam vendor format
1068_20090917_011050_Langseth.all.mb58.gz 3.62MB Kongsberg multibeam vendor format
1069_20090917_014046_Langseth.all.mb58.gz 3.45MB Kongsberg multibeam vendor format
1070_20090917_021038_Langseth.all.mb58.gz 3.82MB Kongsberg multibeam vendor format
1071_20090917_024044_Langseth.all.mb58.gz 3.38MB Kongsberg multibeam vendor format
1072_20090917_031050_Langseth.all.mb58.gz 3.38MB Kongsberg multibeam vendor format
1073_20090917_034055_Langseth.all.mb58.gz 3.45MB Kongsberg multibeam vendor format
1074_20090917_041038_Langseth.all.mb58.gz 3.55MB Kongsberg multibeam vendor format
1075_20090917_044048_Langseth.all.mb58.gz 3.75MB Kongsberg multibeam vendor format
1076_20090917_051052_Langseth.all.mb58.gz 3.72MB Kongsberg multibeam vendor format
1077_20090917_054052_Langseth.all.mb58.gz 3.34MB Kongsberg multibeam vendor format
1078_20090917_061037_Langseth.all.mb58.gz 3.51MB Kongsberg multibeam vendor format
1079_20090917_064046_Langseth.all.mb58.gz 3.61MB Kongsberg multibeam vendor format
1080_20090917_071043_Langseth.all.mb58.gz 3.77MB Kongsberg multibeam vendor format
1081_20090917_074037_Langseth.all.mb58.gz 3.76MB Kongsberg multibeam vendor format
1082_20090917_081041_Langseth.all.mb58.gz 3.79MB Kongsberg multibeam vendor format
1083_20090917_084051_Langseth.all.mb58.gz 3.81MB Kongsberg multibeam vendor format
1084_20090917_091044_Langseth.all.mb58.gz 3.97MB Kongsberg multibeam vendor format
1085_20090917_094036_Langseth.all.mb58.gz 3.84MB Kongsberg multibeam vendor format
1086_20090917_101041_Langseth.all.mb58.gz 3.77MB Kongsberg multibeam vendor format
1087_20090917_104043_Langseth.all.mb58.gz 3.98MB Kongsberg multibeam vendor format
1088_20090917_111050_Langseth.all.mb58.gz 4.01MB Kongsberg multibeam vendor format
1089_20090917_114048_Langseth.all.mb58.gz 4.17MB Kongsberg multibeam vendor format
1090_20090917_121038_Langseth.all.mb58.gz 3.91MB Kongsberg multibeam vendor format
1091_20090917_124045_Langseth.all.mb58.gz 4.16MB Kongsberg multibeam vendor format
1092_20090917_131038_Langseth.all.mb58.gz 3.73MB Kongsberg multibeam vendor format
1093_20090917_134051_Langseth.all.mb58.gz 3.54MB Kongsberg multibeam vendor format
1094_20090917_141036_Langseth.all.mb58.gz 3.61MB Kongsberg multibeam vendor format
1095_20090917_144042_Langseth.all.mb58.gz 3.38MB Kongsberg multibeam vendor format
1096_20090917_151044_Langseth.all.mb58.gz 3.72MB Kongsberg multibeam vendor format
1097_20090917_154038_Langseth.all.mb58.gz 4.07MB Kongsberg multibeam vendor format
1098_20090917_161047_Langseth.all.mb58.gz 3.53MB Kongsberg multibeam vendor format
1099_20090917_164052_Langseth.all.mb58.gz 3.65MB Kongsberg multibeam vendor format
1100_20090917_171037_Langseth.all.mb58.gz 3.50MB Kongsberg multibeam vendor format
1101_20090917_174054_Langseth.all.mb58.gz 3.48MB Kongsberg multibeam vendor format
1102_20090917_181055_Langseth.all.mb58.gz 3.64MB Kongsberg multibeam vendor format
1103_20090917_184039_Langseth.all.mb58.gz 4.06MB Kongsberg multibeam vendor format
1104_20090917_191053_Langseth.all.mb58.gz 3.83MB Kongsberg multibeam vendor format
1105_20090917_194040_Langseth.all.mb58.gz 4.01MB Kongsberg multibeam vendor format
1106_20090917_201039_Langseth.all.mb58.gz 4.28MB Kongsberg multibeam vendor format
1107_20090917_204040_Langseth.all.mb58.gz 3.70MB Kongsberg multibeam vendor format
1108_20090917_211041_Langseth.all.mb58.gz 4.25MB Kongsberg multibeam vendor format
1109_20090917_214046_Langseth.all.mb58.gz 4.25MB Kongsberg multibeam vendor format
1110_20090917_221044_Langseth.all.mb58.gz 4.45MB Kongsberg multibeam vendor format
1111_20090917_224040_Langseth.all.mb58.gz 4.29MB Kongsberg multibeam vendor format
1112_20090917_231036_Langseth.all.mb58.gz 3.53MB Kongsberg multibeam vendor format
1113_20090917_234035_Langseth.all.mb58.gz 4.29MB Kongsberg multibeam vendor format
1114_20090918_001042_Langseth.all.mb58.gz 4.43MB Kongsberg multibeam vendor format
1115_20090918_004038_Langseth.all.mb58.gz 5.00MB Kongsberg multibeam vendor format
1116_20090918_011036_Langseth.all.mb58.gz 5.21MB Kongsberg multibeam vendor format
1117_20090918_014043_Langseth.all.mb58.gz 4.77MB Kongsberg multibeam vendor format
1118_20090918_021040_Langseth.all.mb58.gz 4.58MB Kongsberg multibeam vendor format
1119_20090918_024037_Langseth.all.mb58.gz 4.27MB Kongsberg multibeam vendor format
1120_20090918_031045_Langseth.all.mb58.gz 3.72MB Kongsberg multibeam vendor format
1121_20090918_034044_Langseth.all.mb58.gz 3.73MB Kongsberg multibeam vendor format
1122_20090918_041047_Langseth.all.mb58.gz 3.62MB Kongsberg multibeam vendor format
1123_20090918_044042_Langseth.all.mb58.gz 3.85MB Kongsberg multibeam vendor format
1124_20090918_051038_Langseth.all.mb58.gz 4.05MB Kongsberg multibeam vendor format
1125_20090918_054047_Langseth.all.mb58.gz 4.12MB Kongsberg multibeam vendor format
1126_20090918_061042_Langseth.all.mb58.gz 4.21MB Kongsberg multibeam vendor format
1127_20090918_064035_Langseth.all.mb58.gz 4.38MB Kongsberg multibeam vendor format
1128_20090918_071040_Langseth.all.mb58.gz 4.33MB Kongsberg multibeam vendor format
1129_20090918_074044_Langseth.all.mb58.gz 4.29MB Kongsberg multibeam vendor format
1130_20090918_081037_Langseth.all.mb58.gz 3.87MB Kongsberg multibeam vendor format
1131_20090918_084040_Langseth.all.mb58.gz 3.82MB Kongsberg multibeam vendor format
1132_20090918_091036_Langseth.all.mb58.gz 3.89MB Kongsberg multibeam vendor format
1133_20090918_094053_Langseth.all.mb58.gz 3.77MB Kongsberg multibeam vendor format
1134_20090918_101041_Langseth.all.mb58.gz 3.83MB Kongsberg multibeam vendor format
1135_20090918_104050_Langseth.all.mb58.gz 4.02MB Kongsberg multibeam vendor format
1136_20090918_111038_Langseth.all.mb58.gz 3.91MB Kongsberg multibeam vendor format
1137_20090918_114046_Langseth.all.mb58.gz 3.77MB Kongsberg multibeam vendor format
1138_20090918_121039_Langseth.all.mb58.gz 3.82MB Kongsberg multibeam vendor format
1139_20090918_124047_Langseth.all.mb58.gz 3.75MB Kongsberg multibeam vendor format
1140_20090918_131034_Langseth.all.mb58.gz 3.65MB Kongsberg multibeam vendor format
1141_20090918_134040_Langseth.all.mb58.gz 3.55MB Kongsberg multibeam vendor format
1142_20090918_141047_Langseth.all.mb58.gz 3.68MB Kongsberg multibeam vendor format
1143_20090918_144047_Langseth.all.mb58.gz 3.62MB Kongsberg multibeam vendor format
1144_20090918_151046_Langseth.all.mb58.gz 3.33MB Kongsberg multibeam vendor format
1145_20090918_154035_Langseth.all.mb58.gz 3.52MB Kongsberg multibeam vendor format
1146_20090918_161045_Langseth.all.mb58.gz 3.65MB Kongsberg multibeam vendor format
1147_20090918_164040_Langseth.all.mb58.gz 3.85MB Kongsberg multibeam vendor format
1148_20090918_171045_Langseth.all.mb58.gz 3.96MB Kongsberg multibeam vendor format
1149_20090918_174038_Langseth.all.mb58.gz 4.03MB Kongsberg multibeam vendor format
1150_20090918_181039_Langseth.all.mb58.gz 3.90MB Kongsberg multibeam vendor format
1151_20090918_184043_Langseth.all.mb58.gz 3.95MB Kongsberg multibeam vendor format
1152_20090918_191044_Langseth.all.mb58.gz 3.60MB Kongsberg multibeam vendor format
1153_20090918_194034_Langseth.all.mb58.gz 3.68MB Kongsberg multibeam vendor format
1154_20090918_201035_Langseth.all.mb58.gz 3.65MB Kongsberg multibeam vendor format
1155_20090918_204041_Langseth.all.mb58.gz 3.35MB Kongsberg multibeam vendor format
1156_20090918_211040_Langseth.all.mb58.gz 3.52MB Kongsberg multibeam vendor format
1157_20090918_214036_Langseth.all.mb58.gz 4.01MB Kongsberg multibeam vendor format
1158_20090918_221035_Langseth.all.mb58.gz 4.27MB Kongsberg multibeam vendor format
1159_20090918_224043_Langseth.all.mb58.gz 4.23MB Kongsberg multibeam vendor format
1160_20090918_231046_Langseth.all.mb58.gz 4.05MB Kongsberg multibeam vendor format
1161_20090918_234039_Langseth.all.mb58.gz 3.73MB Kongsberg multibeam vendor format
1162_20090919_001038_Langseth.all.mb58.gz 3.37MB Kongsberg multibeam vendor format
1163_20090919_004036_Langseth.all.mb58.gz 3.48MB Kongsberg multibeam vendor format
1164_20090919_011041_Langseth.all.mb58.gz 3.48MB Kongsberg multibeam vendor format
1165_20090919_014043_Langseth.all.mb58.gz 3.45MB Kongsberg multibeam vendor format
1166_20090919_021036_Langseth.all.mb58.gz 3.66MB Kongsberg multibeam vendor format
1167_20090919_024049_Langseth.all.mb58.gz 3.74MB Kongsberg multibeam vendor format
1168_20090919_031037_Langseth.all.mb58.gz 3.60MB Kongsberg multibeam vendor format
1169_20090919_034041_Langseth.all.mb58.gz 3.59MB Kongsberg multibeam vendor format
1170_20090919_041048_Langseth.all.mb58.gz 3.55MB Kongsberg multibeam vendor format
1171_20090919_044045_Langseth.all.mb58.gz 3.58MB Kongsberg multibeam vendor format
1172_20090919_051049_Langseth.all.mb58.gz 3.60MB Kongsberg multibeam vendor format
1173_20090919_054047_Langseth.all.mb58.gz 3.61MB Kongsberg multibeam vendor format
1174_20090919_061035_Langseth.all.mb58.gz 3.60MB Kongsberg multibeam vendor format
1175_20090919_064037_Langseth.all.mb58.gz 3.69MB Kongsberg multibeam vendor format
1176_20090919_071033_Langseth.all.mb58.gz 3.78MB Kongsberg multibeam vendor format
1177_20090919_074045_Langseth.all.mb58.gz 3.68MB Kongsberg multibeam vendor format
1178_20090919_081033_Langseth.all.mb58.gz 3.76MB Kongsberg multibeam vendor format
1179_20090919_084033_Langseth.all.mb58.gz 3.86MB Kongsberg multibeam vendor format
1180_20090919_091045_Langseth.all.mb58.gz 4.01MB Kongsberg multibeam vendor format
1181_20090919_094033_Langseth.all.mb58.gz 3.82MB Kongsberg multibeam vendor format
1182_20090919_101033_Langseth.all.mb58.gz 3.87MB Kongsberg multibeam vendor format
1183_20090919_104041_Langseth.all.mb58.gz 3.93MB Kongsberg multibeam vendor format
1184_20090919_111044_Langseth.all.mb58.gz 3.76MB Kongsberg multibeam vendor format
1185_20090919_114035_Langseth.all.mb58.gz 3.66MB Kongsberg multibeam vendor format
1186_20090919_121045_Langseth.all.mb58.gz 3.69MB Kongsberg multibeam vendor format
1187_20090919_124038_Langseth.all.mb58.gz 3.79MB Kongsberg multibeam vendor format
1188_20090919_131045_Langseth.all.mb58.gz 3.90MB Kongsberg multibeam vendor format
1189_20090919_134040_Langseth.all.mb58.gz 4.14MB Kongsberg multibeam vendor format
1190_20090919_141036_Langseth.all.mb58.gz 4.14MB Kongsberg multibeam vendor format
1191_20090919_144041_Langseth.all.mb58.gz 3.80MB Kongsberg multibeam vendor format
1192_20090919_151043_Langseth.all.mb58.gz 3.57MB Kongsberg multibeam vendor format
1193_20090919_154038_Langseth.all.mb58.gz 3.74MB Kongsberg multibeam vendor format
1194_20090919_161040_Langseth.all.mb58.gz 3.99MB Kongsberg multibeam vendor format
1195_20090919_164041_Langseth.all.mb58.gz 3.95MB Kongsberg multibeam vendor format
1196_20090919_171043_Langseth.all.mb58.gz 4.39MB Kongsberg multibeam vendor format
1197_20090919_174039_Langseth.all.mb58.gz 5.37MB Kongsberg multibeam vendor format
1198_20090919_181032_Langseth.all.mb58.gz 5.07MB Kongsberg multibeam vendor format
1199_20090919_190917_Langseth.all.mb58.gz 15.79MB Kongsberg multibeam vendor format
1200_20090919_193916_Langseth.all.mb58.gz 22.71MB Kongsberg multibeam vendor format
1201_20090919_200916_Langseth.all.mb58.gz 32.96MB Kongsberg multibeam vendor format
1202_20090919_203916_Langseth.all.mb58.gz 48.00MB Kongsberg multibeam vendor format
1203_20090919_210915_Langseth.all.mb58.gz 15.20MB Kongsberg multibeam vendor format
9999.all.mb58.gz 4.43MB Kongsberg multibeam vendor format

Metadata Files: 1

Files File Size Description
MGL0910_Multibeam.xml NGDC created ISO metadata